Time,TemperatureF,DewpointF,PressureIn,WindDirection,WindDirectionDegrees,WindSpeedMPH,WindSpeedGustMPH,Humidity,HourlyPrecipIn,Conditions,Clouds,dailyrainin,SoftwareType,DateUTC
2013-10-13 00:00:00,54.2,49.8,30.40,SE,128,2.0,6.0,85,0.00,,,0.00,WeatherCatV1.21B27,2013-10-13 04:00:00,
2013-10-13 00:01:00,54.2,49.8,30.40,SE,146,2.0,7.0,85,0.00,,,0.00,WeatherCatV1.21B27,2013-10-13 04:01:00,
2013-10-13 00:02:00,54.1,49.7,30.40,SSE,164,6.0,7.0,85,0.00,,,0.00,WeatherCatV1.21B27,2013-10-13 04:02:00,
2013-10-13 00:06:00,54.0,49.6,30.40,East,99,2.0,8.0,85,0.00,,,0.00,WeatherCatV1.21B27,2013-10-13 04:06:00,
2013-10-13 00:07:00,53.9,49.5,30.40,SE,136,2.0,9.0,85,0.00,,,0.00,WeatherCatV1.21B27,2013-10-13 04:07:00,
2013-10-13 00:11:00,53.9,49.8,30.40,ESE,119,4.0,5.0,86,0.00,,,0.00,WeatherCatV1.21B27,2013-10-13 04:11:00,
2013-10-13 00:12:00,53.9,49.8,30.40,East,100,4.0,8.0,86,0.00,,,0.00,WeatherCatV1.21B27,2013-10-13 04:12:00,
2013-10-13 00:13:00,53.9,49.8,30.40,East,101,2.0,8.0,86,0.00,,,0.00,WeatherCatV1.21B27,2013-10-13 04:13:00,
2013-10-13 00:16:00,53.8,49.7,30.40,SSE,153,5.0,6.0,86,0.00,,,0.00,WeatherCatV1.21B27,2013-10-13 04:16:00,
2013-10-13 00:17:00,53.8,49.7,30.40,SSE,154,5.0,7.0,86,0.00,,,0.00,WeatherCatV1.21B27,2013-10-13 04:17:00,
2013-10-13 00:18:00,53.8,49.7,30.40,SE,136,1.0,8.0,86,0.00,,,0.00,WeatherCatV1.21B27,2013-10-13 04:18:00,
2013-10-13 00:21:00,53.8,49.7,30.40,ESE,123,7.0,8.0,86,0.00,,,0.00,WeatherCatV1.21B27,2013-10-13 04:21:00,
2013-10-13 00:22:00,53.8,49.7,30.40,SE,137,4.0,8.0,86,0.00,,,0.00,WeatherCatV1.21B27,2013-10-13 04:22:00,
2013-10-13 00:24:00,53.7,49.6,30.40,SE,144,8.0,8.0,86,0.00,,,0.00,WeatherCatV1.21B27,2013-10-13 04:24:00,
2013-10-13 00:26:00,53.7,49.6,30.40,East,100,6.0,8.0,86,0.00,,,0.00,WeatherCatV1.21B27,2013-10-13 04:26:00,
2013-10-13 00:27:00,53.7,49.6,30.40,ESE,112,4.0,8.0,86,0.00,,,0.00,WeatherCatV1.21B27,2013-10-13 04:27:00,
2013-10-13 00:29:00,53.7,49.6,30.40,SE,127,4.0,6.0,86,0.00,,,0.00,WeatherCatV1.21B27,2013-10-13 04:29:00,
2013-10-13 00:31:00,53.7,49.6,30.40,ESE,120,5.0,11.0,86,0.00,,,0.00,WeatherCatV1.21B27,2013-10-13 04:31:00,
2013-10-13 00:32:00,53.7,49.6,30.40,East,82,0.0,11.0,86,0.00,,,0.00,WeatherCatV1.21B27,2013-10-13 04:32:00,
2013-10-13 00:33:00,53.7,49.6,30.40,ESE,115,0.0,6.0,86,0.00,,,0.00,WeatherCatV1.21B27,2013-10-13 04:33:00,
2013-10-13 00:34:00,53.7,49.3,30.40,ESE,107,0.0,4.0,85,0.00,,,0.00,WeatherCatV1.21B27,2013-10-13 04:34:00,
2013-10-13 00:36:00,53.7,49.3,30.40,ESE,108,1.0,1.0,85,0.00,,,0.00,WeatherCatV1.21B27,2013-10-13 04:36:00,
2013-10-13 00:37:00,53.6,49.2,30.40,ESE,117,4.0,7.0,85,0.00,,,0.00,WeatherCatV1.21B27,2013-10-13 04:37:00,
2013-10-13 00:38:00,53.6,49.2,30.40,ESE,116,0.0,7.0,85,0.00,,,0.00,WeatherCatV1.21B27,2013-10-13 04:38:00,
2013-10-13 00:40:00,53.6,49.2,30.40,SE,126,0.0,8.0,85,0.00,,,0.00,WeatherCatV1.21B27,2013-10-13 04:40:00,
2013-10-13 00:41:00,53.6,49.2,30.40,ESE,119,6.0,7.0,85,0.00,,,0.00,WeatherCatV1.21B27,2013-10-13 04:41:00,
2013-10-13 00:42:00,53.6,49.2,30.40,East,84,0.0,7.0,85,0.00,,,0.00,WeatherCatV1.21B27,2013-10-13 04:42:00,
2013-10-13 00:43:00,53.6,49.2,30.40,ESE,112,1.0,7.0,85,0.00,,,0.00,WeatherCatV1.21B27,2013-10-13 04:43:00,
2013-10-13 00:45:00,53.6,49.2,30.40,East,95,4.0,5.0,85,0.00,,,0.00,WeatherCatV1.21B27,2013-10-13 04:45:00,
2013-10-13 00:46:00,53.5,49.1,30.40,ESE,113,1.0,6.0,85,0.00,,,0.00,WeatherCatV1.21B27,2013-10-13 04:46:00,
2013-10-13 00:48:00,53.5,49.1,30.40,ESE,113,1.0,4.0,85,0.00,,,0.00,WeatherCatV1.21B27,2013-10-13 04:48:00,
2013-10-13 00:49:00,53.5,49.1,30.40,SE,128,5.0,9.0,85,0.00,,,0.00,WeatherCatV1.21B27,2013-10-13 04:49:00,
2013-10-13 00:50:00,53.5,49.1,30.40,East,82,3.0,9.0,85,0.00,,,0.00,WeatherCatV1.21B27,2013-10-13 04:50:00,
2013-10-13 00:51:00,53.5,49.1,30.40,ESE,119,4.0,5.0,85,0.00,,,0.00,WeatherCatV1.21B27,2013-10-13 04:51:00,
2013-10-13 00:52:00,53.5,49.1,30.40,East,94,4.0,4.0,85,0.00,,,0.00,WeatherCatV1.21B27,2013-10-13 04:52:00,
2013-10-13 00:53:00,53.5,49.1,30.40,East,94,0.0,4.0,85,0.00,,,0.00,WeatherCatV1.21B27,2013-10-13 04:53:00,
2013-10-13 00:54:00,53.4,49.0,30.40,East,94,0.0,2.0,85,0.00,,,0.00,WeatherCatV1.21B27,2013-10-13 04:54:00,
2013-10-13 00:55:00,53.4,49.0,30.40,East,94,0.0,2.0,85,0.00,,,0.00,WeatherCatV1.21B27,2013-10-13 04:55:00,
2013-10-13 00:57:00,53.3,49.2,30.40,East,94,1.0,2.0,86,0.00,,,0.00,WeatherCatV1.21B27,2013-10-13 04:57:00,
2013-10-13 00:58:00,53.3,49.2,30.40,East,90,1.0,4.0,86,0.00,,,0.00,WeatherCatV1.21B27,2013-10-13 04:58:00,
2013-10-13 00:59:00,53.2,49.1,30.40,SSE,168,0.0,7.0,86,0.00,,,0.00,WeatherCatV1.21B27,2013-10-13 04:59:00,
2013-10-13 01:01:00,53.2,49.1,30.40,SE,125,2.0,6.0,86,0.00,,,0.00,WeatherCatV1.21B27,2013-10-13 05:01:00,
2013-10-13 01:02:00,53.2,49.1,30.40,SE,126,2.0,6.0,86,0.00,,,0.00,WeatherCatV1.21B27,2013-10-13 05:02:00,
2013-10-13 01:03:00,53.2,49.1,30.40,ESE,104,4.0,5.0,86,0.00,,,0.00,WeatherCatV1.21B27,2013-10-13 05:03:00,
2013-10-13 01:04:00,53.2,49.1,30.40,East,99,2.0,5.0,86,0.00,,,0.00,WeatherCatV1.21B27,2013-10-13 05:04:00,
2013-10-13 01:06:00,53.2,49.1,30.40,SE,135,6.0,6.0,86,0.00,,,0.00,WeatherCatV1.21B27,2013-10-13 05:06:00,
2013-10-13 01:07:00,53.2,49.1,30.40,ESE,103,2.0,6.0,86,0.00,,,0.00,WeatherCatV1.21B27,2013-10-13 05:07:00,
2013-10-13 01:08:00,53.3,49.2,30.40,ESE,117,6.0,6.0,86,0.00,,,0.00,WeatherCatV1.21B27,2013-10-13 05:08:00,
2013-10-13 01:09:00,53.3,49.2,30.40,ESE,108,2.0,6.0,86,0.00,,,0.00,WeatherCatV1.21B27,2013-10-13 05:09:00,
2013-10-13 01:10:00,53.4,49.3,30.40,East,101,4.0,6.0,86,0.00,,,0.00,WeatherCatV1.21B27,2013-10-13 05:10:00,
2013-10-13 01:11:00,53.4,49.3,30.40,ESE,120,4.0,5.0,86,0.00,,,0.00,WeatherCatV1.21B27,2013-10-13 05:11:00,
2013-10-13 01:12:00,53.4,49.3,30.40,ESE,113,0.0,5.0,86,0.00,,,0.00,WeatherCatV1.21B27,2013-10-13 05:12:00,
2013-10-13 01:14:00,53.5,49.4,30.40,ESE,114,1.0,5.0,86,0.00,,,0.00,WeatherCatV1.21B27,2013-10-13 05:14:00,
2013-10-13 01:15:00,53.5,49.4,30.40,East,87,5.0,6.0,86,0.00,,,0.00,WeatherCatV1.21B27,2013-10-13 05:15:00,
2013-10-13 01:16:00,53.6,49.5,30.40,SSE,159,6.0,9.0,86,0.00,,,0.00,WeatherCatV1.21B27,2013-10-13 05:16:00,
2013-10-13 01:17:00,53.6,49.5,30.40,ESE,103,6.0,9.0,86,0.00,,,0.00,WeatherCatV1.21B27,2013-10-13 05:17:00,
2013-10-13 01:18:00,53.6,49.5,30.40,ESE,105,7.0,7.0,86,0.00,,,0.00,WeatherCatV1.21B27,2013-10-13 05:18:00,
2013-10-13 01:19:00,53.7,49.6,30.40,SSE,153,4.0,7.0,86,0.00,,,0.00,WeatherCatV1.21B27,2013-10-13 05:19:00,
2013-10-13 01:20:00,53.8,49.7,30.40,ESE,122,5.0,9.0,86,0.00,,,0.00,WeatherCatV1.21B27,2013-10-13 05:20:00,
2013-10-13 01:21:00,53.9,49.8,30.40,SE,137,1.0,9.0,86,0.00,,,0.00,WeatherCatV1.21B27,2013-10-13 05:21:00,
2013-10-13 01:22:00,53.9,49.8,30.40,ESE,121,6.0,9.0,86,0.00,,,0.00,WeatherCatV1.21B27,2013-10-13 05:22:00,
2013-10-13 01:23:00,53.9,49.8,30.40,ESE,120,1.0,9.0,86,0.00,,,0.00,WeatherCatV1.21B27,2013-10-13 05:23:00,
2013-10-13 01:24:00,53.9,49.8,30.40,ESE,106,2.0,9.0,86,0.00,,,0.00,WeatherCatV1.21B27,2013-10-13 05:24:00,
2013-10-13 01:25:00,53.9,49.8,30.40,ESE,107,4.0,8.0,86,0.00,,,0.00,WeatherCatV1.21B27,2013-10-13 05:25:00,
2013-10-13 01:27:00,54.0,49.9,30.40,SE,132,6.0,11.0,86,0.00,,,0.00,WeatherCatV1.21B27,2013-10-13 05:27:00,
2013-10-13 01:29:00,54.0,49.9,30.40,ESE,107,7.0,11.0,86,0.00,,,0.00,WeatherCatV1.21B27,2013-10-13 05:29:00,
2013-10-13 01:31:00,54.1,50.0,30.40,SE,138,2.0,8.0,86,0.00,,,0.00,WeatherCatV1.21B27,2013-10-13 05:31:00,
2013-10-13 01:32:00,54.2,50.1,30.40,ESE,120,5.0,11.0,86,0.00,,,0.00,WeatherCatV1.21B27,2013-10-13 05:32:00,
2013-10-13 01:34:00,54.2,49.8,30.40,East,82,2.0,11.0,85,0.00,,,0.00,WeatherCatV1.21B27,2013-10-13 05:34:00,
2013-10-13 01:35:00,54.2,49.8,30.40,ESE,118,2.0,8.0,85,0.00,,,0.00,WeatherCatV1.21B27,2013-10-13 05:35:00,
2013-10-13 01:36:00,54.3,50.2,30.40,ESE,110,5.0,8.0,86,0.00,,,0.00,WeatherCatV1.21B27,2013-10-13 05:36:00,
2013-10-13 01:37:00,54.3,49.9,30.40,East,81,3.0,8.0,85,0.00,,,0.00,WeatherCatV1.21B27,2013-10-13 05:37:00,
2013-10-13 01:38:00,54.3,49.9,30.40,East,94,0.0,7.0,85,0.00,,,0.00,WeatherCatV1.21B27,2013-10-13 05:38:00,
2013-10-13 01:39:00,54.3,49.9,30.40,SE,143,4.0,4.0,85,0.00,,,0.00,WeatherCatV1.21B27,2013-10-13 05:39:00,
2013-10-13 01:40:00,54.3,49.9,30.40,SSE,148,2.0,4.0,85,0.00,,,0.00,WeatherCatV1.21B27,2013-10-13 05:40:00,
2013-10-13 01:41:00,54.3,49.9,30.40,ENE,58,6.0,8.0,85,0.00,,,0.00,WeatherCatV1.21B27,2013-10-13 05:41:00,
2013-10-13 01:42:00,54.3,49.9,30.40,SE,141,2.0,11.0,85,0.00,,,0.00,WeatherCatV1.21B27,2013-10-13 05:42:00,
2013-10-13 01:43:00,54.3,49.9,30.40,East,83,0.0,12.0,85,0.00,,,0.00,WeatherCatV1.21B27,2013-10-13 05:43:00,
2013-10-13 01:44:00,54.3,49.9,30.40,SE,124,5.0,12.0,85,0.00,,,0.00,WeatherCatV1.21B27,2013-10-13 05:44:00,
2013-10-13 01:45:00,54.3,49.9,30.40,ESE,121,5.0,12.0,85,0.00,,,0.00,WeatherCatV1.21B27,2013-10-13 05:45:00,
2013-10-13 01:46:00,54.4,50.0,30.40,ESE,113,5.0,9.0,85,0.00,,,0.00,WeatherCatV1.21B27,2013-10-13 05:46:00,
2013-10-13 01:47:00,54.4,49.7,30.40,ESE,123,4.0,8.0,84,0.00,,,0.00,WeatherCatV1.21B27,2013-10-13 05:47:00,
2013-10-13 01:48:00,54.4,50.0,30.40,ESE,103,5.0,6.0,85,0.00,,,0.00,WeatherCatV1.21B27,2013-10-13 05:48:00,
2013-10-13 01:49:00,54.4,49.7,30.40,ESE,109,4.0,6.0,84,0.00,,,0.00,WeatherCatV1.21B27,2013-10-13 05:49:00,
2013-10-13 01:50:00,54.4,49.7,30.40,ESE,109,4.0,6.0,84,0.00,,,0.00,WeatherCatV1.21B27,2013-10-13 05:50:00,
2013-10-13 01:51:00,54.4,49.7,30.40,SE,125,4.0,8.0,84,0.00,,,0.00,WeatherCatV1.21B27,2013-10-13 05:51:00,
2013-10-13 01:52:00,54.4,49.7,30.40,East,95,1.0,6.0,84,0.00,,,0.00,WeatherCatV1.21B27,2013-10-13 05:52:00,
2013-10-13 01:53:00,54.3,49.6,30.40,ESE,115,6.0,6.0,84,0.00,,,0.00,WeatherCatV1.21B27,2013-10-13 05:53:00,
2013-10-13 01:54:00,54.3,49.6,30.40,SE,131,5.0,7.0,84,0.00,,,0.00,WeatherCatV1.21B27,2013-10-13 05:54:00,
2013-10-13 01:55:00,54.3,49.6,30.40,East,100,1.0,7.0,84,0.00,,,0.00,WeatherCatV1.21B27,2013-10-13 05:55:00,
2013-10-13 01:56:00,54.2,49.8,30.40,SE,144,4.0,8.0,85,0.00,,,0.00,WeatherCatV1.21B27,2013-10-13 05:56:00,
2013-10-13 01:57:00,54.2,49.8,30.40,ESE,115,1.0,8.0,85,0.00,,,0.00,WeatherCatV1.21B27,2013-10-13 05:57:00,
2013-10-13 01:59:00,54.1,49.7,30.40,East,80,3.0,6.0,85,0.00,,,0.00,WeatherCatV1.21B27,2013-10-13 05:59:00,
2013-10-13 02:00:00,54.1,49.7,30.40,East,98,5.0,6.0,85,0.00,,,0.00,WeatherCatV1.21B27,2013-10-13 06:00:00,
2013-10-13 02:02:00,54.1,49.7,30.40,ESE,107,9.0,17.0,85,0.00,,,0.00,WeatherCatV1.21B27,2013-10-13 06:02:00,
2013-10-13 02:03:00,54.1,49.7,30.40,SE,128,4.0,17.0,85,0.00,,,0.00,WeatherCatV1.21B27,2013-10-13 06:03:00,
2013-10-13 02:04:00,54.1,49.7,30.40,ESE,109,4.0,9.0,85,0.00,,,0.00,WeatherCatV1.21B27,2013-10-13 06:04:00,
2013-10-13 02:05:00,54.1,49.7,30.40,SE,141,4.0,8.0,85,0.00,,,0.00,WeatherCatV1.21B27,2013-10-13 06:05:00,
2013-10-13 02:07:00,54.1,49.7,30.40,ESE,121,1.0,6.0,85,0.00,,,0.00,WeatherCatV1.21B27,2013-10-13 06:07:00,
2013-10-13 02:08:00,54.1,49.7,30.40,ESE,117,1.0,4.0,85,0.00,,,0.00,WeatherCatV1.21B27,2013-10-13 06:08:00,
2013-10-13 02:09:00,54.1,49.7,30.40,SE,144,2.0,5.0,85,0.00,,,0.00,WeatherCatV1.21B27,2013-10-13 06:09:00,
2013-10-13 02:10:00,54.1,49.7,30.40,ESE,119,8.0,8.0,85,0.00,,,0.00,WeatherCatV1.21B27,2013-10-13 06:10:00,
2013-10-13 02:12:00,54.0,49.3,30.40,SE,133,1.0,8.0,84,0.00,,,0.00,WeatherCatV1.21B27,2013-10-13 06:12:00,
2013-10-13 02:13:00,54.0,49.3,30.40,SE,124,4.0,6.0,84,0.00,,,0.00,WeatherCatV1.21B27,2013-10-13 06:13:00,
2013-10-13 02:14:00,54.0,49.3,30.40,SE,136,2.0,6.0,84,0.00,,,0.00,WeatherCatV1.21B27,2013-10-13 06:14:00,
2013-10-13 02:15:00,54.0,49.3,30.40,SE,126,5.0,7.0,84,0.00,,,0.00,WeatherCatV1.21B27,2013-10-13 06:15:00,
2013-10-13 02:17:00,54.0,49.3,30.40,ESE,113,2.0,5.0,84,0.00,,,0.00,WeatherCatV1.21B27,2013-10-13 06:17:00,
2013-10-13 02:18:00,54.0,49.3,30.40,ESE,117,6.0,6.0,84,0.00,,,0.00,WeatherCatV1.21B27,2013-10-13 06:18:00,
2013-10-13 02:19:00,54.0,49.6,30.40,SE,142,4.0,6.0,85,0.00,,,0.00,WeatherCatV1.21B27,2013-10-13 06:19:00,
2013-10-13 02:20:00,54.0,49.3,30.40,SE,139,5.0,6.0,84,0.00,,,0.00,WeatherCatV1.21B27,2013-10-13 06:20:00,
2013-10-13 02:22:00,54.0,49.3,30.40,SE,132,4.0,7.0,84,0.00,,,0.00,WeatherCatV1.21B27,2013-10-13 06:22:00,
2013-10-13 02:23:00,54.0,49.6,30.40,ESE,111,4.0,7.0,85,0.00,,,0.00,WeatherCatV1.21B27,2013-10-13 06:23:00,
2013-10-13 02:24:00,54.0,49.3,30.40,East,80,3.0,12.0,84,0.00,,,0.00,WeatherCatV1.21B27,2013-10-13 06:24:00,
2013-10-13 02:25:00,54.0,49.3,30.40,SE,134,2.0,12.0,84,0.00,,,0.00,WeatherCatV1.21B27,2013-10-13 06:25:00,
2013-10-13 02:27:00,54.0,49.6,30.40,ENE,68,2.0,6.0,85,0.00,,,0.00,WeatherCatV1.21B27,2013-10-13 06:27:00,
2013-10-13 02:28:00,54.0,49.6,30.39,ESE,121,2.0,5.0,85,0.00,,,0.00,WeatherCatV1.21B27,2013-10-13 06:28:00,
2013-10-13 02:29:00,54.0,49.6,30.39,ESE,120,2.0,9.0,85,0.00,,,0.00,WeatherCatV1.21B27,2013-10-13 06:29:00,
2013-10-13 02:30:00,53.9,49.2,30.39,ESE,120,7.0,9.0,84,0.00,,,0.00,WeatherCatV1.21B27,2013-10-13 06:30:00,
2013-10-13 02:33:00,53.9,49.2,30.39,SE,130,4.0,7.0,84,0.00,,,0.00,WeatherCatV1.21B27,2013-10-13 06:33:00,
2013-10-13 02:34:00,53.9,49.5,30.39,SE,140,5.0,6.0,85,0.00,,,0.00,WeatherCatV1.21B27,2013-10-13 06:34:00,
2013-10-13 02:35:00,53.9,49.5,30.39,ESE,107,2.0,6.0,85,0.00,,,0.00,WeatherCatV1.21B27,2013-10-13 06:35:00,
2013-10-13 02:39:00,53.9,49.2,30.39,ESE,117,8.0,8.0,84,0.00,,,0.00,WeatherCatV1.21B27,2013-10-13 06:39:00,
2013-10-13 02:40:00,53.9,49.2,30.39,SE,142,0.0,8.0,84,0.00,,,0.00,WeatherCatV1.21B27,2013-10-13 06:40:00,
2013-10-13 02:41:00,53.9,49.2,30.39,SE,136,5.0,8.0,84,0.00,,,0.00,WeatherCatV1.21B27,2013-10-13 06:41:00,
2013-10-13 02:44:00,53.9,49.5,30.39,ESE,115,5.0,8.0,85,0.00,,,0.00,WeatherCatV1.21B27,2013-10-13 06:44:00,
2013-10-13 02:45:00,53.9,49.5,30.39,ESE,113,4.0,5.0,85,0.00,,,0.00,WeatherCatV1.21B27,2013-10-13 06:45:00,
2013-10-13 02:46:00,53.9,49.5,30.39,ESE,103,5.0,5.0,85,0.00,,,0.00,WeatherCatV1.21B27,2013-10-13 06:46:00,
2013-10-13 02:49:00,53.9,49.5,30.39,SE,144,2.0,4.0,85,0.00,,,0.00,WeatherCatV1.21B27,2013-10-13 06:49:00,
2013-10-13 02:51:00,53.9,49.5,30.39,ESE,103,1.0,7.0,85,0.00,,,0.00,WeatherCatV1.21B27,2013-10-13 06:51:00,
2013-10-13 02:54:00,53.9,49.5,30.39,East,98,6.0,9.0,85,0.00,,,0.00,WeatherCatV1.21B27,2013-10-13 06:54:00,
2013-10-13 02:55:00,53.9,49.5,30.39,ESE,105,1.0,6.0,85,0.00,,,0.00,WeatherCatV1.21B27,2013-10-13 06:55:00,
2013-10-13 02:56:00,53.9,49.5,30.39,East,100,5.0,7.0,85,0.00,,,0.00,WeatherCatV1.21B27,2013-10-13 06:56:00,
2013-10-13 02:59:00,54.0,49.3,30.39,South,176,4.0,8.0,84,0.00,,,0.00,WeatherCatV1.21B27,2013-10-13 06:59:00,
2013-10-13 03:00:00,54.0,49.3,30.39,ESE,117,6.0,8.0,84,0.00,,,0.00,WeatherCatV1.21B27,2013-10-13 07:00:00,
2013-10-13 03:01:00,54.0,49.3,30.39,SE,128,4.0,8.0,84,0.00,,,0.00,WeatherCatV1.21B27,2013-10-13 07:01:00,
2013-10-13 03:02:00,54.0,49.3,30.39,East,91,0.0,6.0,84,0.00,,,0.00,WeatherCatV1.21B27,2013-10-13 07:02:00,
2013-10-13 03:05:00,54.0,49.3,30.39,SE,129,4.0,11.0,84,0.00,,,0.00,WeatherCatV1.21B27,2013-10-13 07:05:00,
2013-10-13 03:06:00,54.0,49.3,30.39,East,99,5.0,11.0,84,0.00,,,0.00,WeatherCatV1.21B27,2013-10-13 07:06:00,
2013-10-13 03:07:00,54.0,49.3,30.39,SE,131,4.0,8.0,84,0.00,,,0.00,WeatherCatV1.21B27,2013-10-13 07:07:00,
2013-10-13 03:10:00,54.0,49.3,30.39,ESE,114,2.0,4.0,84,0.00,,,0.00,WeatherCatV1.21B27,2013-10-13 07:10:00,
2013-10-13 03:11:00,54.1,49.4,30.39,SE,126,5.0,6.0,84,0.00,,,0.00,WeatherCatV1.21B27,2013-10-13 07:11:00,
2013-10-13 03:12:00,54.0,49.3,30.39,SSE,154,2.0,6.0,84,0.00,,,0.00,WeatherCatV1.21B27,2013-10-13 07:12:00,
2013-10-13 03:16:00,54.0,49.3,30.39,SSE,153,4.0,9.0,84,0.00,,,0.00,WeatherCatV1.21B27,2013-10-13 07:16:00,
2013-10-13 03:17:00,54.0,49.3,30.39,ENE,78,3.0,7.0,84,0.00,,,0.00,WeatherCatV1.21B27,2013-10-13 07:17:00,
2013-10-13 03:21:00,53.9,49.5,30.39,ESE,103,0.0,8.0,85,0.00,,,0.00,WeatherCatV1.21B27,2013-10-13 07:21:00,
2013-10-13 03:22:00,53.9,49.2,30.38,East,101,2.0,8.0,84,0.00,,,0.00,WeatherCatV1.21B27,2013-10-13 07:22:00,
2013-10-13 03:23:00,53.9,49.2,30.38,ESE,119,0.0,8.0,84,0.00,,,0.00,WeatherCatV1.21B27,2013-10-13 07:23:00,
2013-10-13 03:26:00,53.9,49.5,30.38,ESE,114,1.0,4.0,85,0.00,,,0.00,WeatherCatV1.21B27,2013-10-13 07:26:00,
2013-10-13 03:27:00,53.9,49.5,30.38,SE,129,4.0,8.0,85,0.00,,,0.00,WeatherCatV1.21B27,2013-10-13 07:27:00,
2013-10-13 03:28:00,53.9,49.2,30.38,ESE,102,2.0,8.0,84,0.00,,,0.00,WeatherCatV1.21B27,2013-10-13 07:28:00,
2013-10-13 03:31:00,53.8,49.1,30.38,ESE,122,5.0,7.0,84,0.00,,,0.00,WeatherCatV1.21B27,2013-10-13 07:31:00,
2013-10-13 03:33:00,53.8,49.1,30.38,SE,144,5.0,12.0,84,0.00,,,0.00,WeatherCatV1.21B27,2013-10-13 07:33:00,
2013-10-13 03:36:00,53.7,49.0,30.38,ESE,117,5.0,11.0,84,0.00,,,0.00,WeatherCatV1.21B27,2013-10-13 07:36:00,
2013-10-13 03:38:00,53.7,49.0,30.38,East,80,3.0,7.0,84,0.00,,,0.00,WeatherCatV1.21B27,2013-10-13 07:38:00,
2013-10-13 03:39:00,53.7,49.0,30.38,SE,143,6.0,6.0,84,0.00,,,0.00,WeatherCatV1.21B27,2013-10-13 07:39:00,
2013-10-13 03:41:00,53.7,49.0,30.38,SE,127,2.0,9.0,84,0.00,,,0.00,WeatherCatV1.21B27,2013-10-13 07:41:00,
2013-10-13 03:42:00,53.7,49.0,30.38,ESE,113,2.0,9.0,84,0.00,,,0.00,WeatherCatV1.21B27,2013-10-13 07:42:00,
2013-10-13 03:43:00,53.6,48.9,30.38,SE,134,5.0,6.0,84,0.00,,,0.00,WeatherCatV1.21B27,2013-10-13 07:43:00,
2013-10-13 03:44:00,53.6,49.2,30.38,ESE,115,5.0,8.0,85,0.00,,,0.00,WeatherCatV1.21B27,2013-10-13 07:44:00,
2013-10-13 03:47:00,53.6,49.2,30.38,SSE,156,4.0,7.0,85,0.00,,,0.00,WeatherCatV1.21B27,2013-10-13 07:47:00,
2013-10-13 03:48:00,53.6,49.2,30.38,SSE,163,4.0,7.0,85,0.00,,,0.00,WeatherCatV1.21B27,2013-10-13 07:48:00,
2013-10-13 03:49:00,53.6,49.2,30.38,ESE,115,2.0,5.0,85,0.00,,,0.00,WeatherCatV1.21B27,2013-10-13 07:49:00,
2013-10-13 03:52:00,53.5,49.1,30.38,ESE,108,2.0,8.0,85,0.00,,,0.00,WeatherCatV1.21B27,2013-10-13 07:52:00,
2013-10-13 03:53:00,53.5,49.1,30.38,East,91,9.0,9.0,85,0.00,,,0.00,WeatherCatV1.21B27,2013-10-13 07:53:00,
2013-10-13 03:54:00,53.5,49.1,30.38,ESE,118,2.0,11.0,85,0.00,,,0.00,WeatherCatV1.21B27,2013-10-13 07:54:00,
2013-10-13 03:57:00,53.5,49.1,30.38,SSE,153,0.0,7.0,85,0.00,,,0.00,WeatherCatV1.21B27,2013-10-13 07:57:00,
2013-10-13 03:58:00,53.5,49.1,30.39,East,90,6.0,8.0,85,0.00,,,0.00,WeatherCatV1.21B27,2013-10-13 07:58:00,
2013-10-13 03:59:00,53.5,49.1,30.39,ESE,121,6.0,11.0,85,0.00,,,0.00,WeatherCatV1.21B27,2013-10-13 07:59:00,
2013-10-13 04:02:00,53.5,49.1,30.39,East,90,6.0,9.0,85,0.00,,,0.00,WeatherCatV1.21B27,2013-10-13 08:02:00,
2013-10-13 04:04:00,53.6,49.2,30.39,ESE,123,6.0,11.0,85,0.00,,,0.00,WeatherCatV1.21B27,2013-10-13 08:04:00,
2013-10-13 04:07:00,53.6,49.2,30.38,East,100,8.0,12.0,85,0.00,,,0.00,WeatherCatV1.21B27,2013-10-13 08:07:00,
2013-10-13 04:09:00,53.7,49.3,30.39,SE,126,2.0,15.0,85,0.00,,,0.00,WeatherCatV1.21B27,2013-10-13 08:09:00,
2013-10-13 04:10:00,53.7,49.3,30.38,East,98,6.0,8.0,85,0.00,,,0.00,WeatherCatV1.21B27,2013-10-13 08:10:00,
2013-10-13 04:12:00,53.7,49.0,30.38,SE,126,5.0,11.0,84,0.00,,,0.00,WeatherCatV1.21B27,2013-10-13 08:12:00,
2013-10-13 04:14:00,53.7,49.3,30.38,ESE,115,1.0,7.0,85,0.00,,,0.00,WeatherCatV1.21B27,2013-10-13 08:14:00,
2013-10-13 04:15:00,53.7,49.3,30.38,SE,128,7.0,9.0,85,0.00,,,0.00,WeatherCatV1.21B27,2013-10-13 08:15:00,
2013-10-13 04:17:00,53.7,49.0,30.38,ESE,107,14.0,14.0,84,0.00,,,0.00,WeatherCatV1.21B27,2013-10-13 08:17:00,
2013-10-13 04:19:00,53.7,49.3,30.38,ESE,112,2.0,5.0,85,0.00,,,0.00,WeatherCatV1.21B27,2013-10-13 08:19:00,
2013-10-13 04:20:00,53.7,49.3,30.38,East,98,4.0,7.0,85,0.00,,,0.00,WeatherCatV1.21B27,2013-10-13 08:20:00,
2013-10-13 04:22:00,53.7,49.3,30.38,ESE,118,2.0,8.0,85,0.00,,,0.00,WeatherCatV1.21B27,2013-10-13 08:22:00,
2013-10-13 04:24:00,53.6,49.2,30.38,ESE,123,8.0,8.0,85,0.00,,,0.00,WeatherCatV1.21B27,2013-10-13 08:24:00,
2013-10-13 04:25:00,53.6,49.2,30.38,SSE,168,7.0,9.0,85,0.00,,,0.00,WeatherCatV1.21B27,2013-10-13 08:25:00,
2013-10-13 04:27:00,53.7,49.3,30.38,SE,142,2.0,5.0,85,0.00,,,0.00,WeatherCatV1.21B27,2013-10-13 08:27:00,
2013-10-13 04:30:00,53.7,49.3,30.38,SE,132,5.0,12.0,85,0.00,,,0.00,WeatherCatV1.21B27,2013-10-13 08:30:00,
2013-10-13 04:33:00,53.8,49.4,30.38,SSE,148,2.0,9.0,85,0.00,,,0.00,WeatherCatV1.21B27,2013-10-13 08:33:00,
2013-10-13 04:35:00,53.8,49.4,30.38,SE,125,4.0,7.0,85,0.00,,,0.00,WeatherCatV1.21B27,2013-10-13 08:35:00,
2013-10-13 04:36:00,53.8,49.4,30.38,ESE,118,7.0,7.0,85,0.00,,,0.00,WeatherCatV1.21B27,2013-10-13 08:36:00,
2013-10-13 04:38:00,53.8,49.4,30.39,SSE,156,5.0,7.0,85,0.00,,,0.00,WeatherCatV1.21B27,2013-10-13 08:38:00,
2013-10-13 04:40:00,53.7,49.3,30.38,SE,142,2.0,6.0,85,0.00,,,0.00,WeatherCatV1.21B27,2013-10-13 08:40:00,
2013-10-13 04:41:00,53.7,49.3,30.39,SE,142,2.0,6.0,85,0.00,,,0.00,WeatherCatV1.21B27,2013-10-13 08:41:00,
2013-10-13 04:43:00,53.7,49.3,30.39,East,101,7.0,7.0,85,0.00,,,0.00,WeatherCatV1.21B27,2013-10-13 08:43:00,
2013-10-13 04:45:00,53.7,49.3,30.39,ESE,113,7.0,12.0,85,0.00,,,0.00,WeatherCatV1.21B27,2013-10-13 08:45:00,
2013-10-13 04:46:00,53.7,49.3,30.39,East,92,5.0,12.0,85,0.00,,,0.00,WeatherCatV1.21B27,2013-10-13 08:46:00,
2013-10-13 04:47:00,53.7,49.3,30.39,East,80,3.0,7.0,85,0.00,,,0.00,WeatherCatV1.21B27,2013-10-13 08:47:00,
2013-10-13 04:48:00,53.7,49.3,30.39,ESE,118,1.0,7.0,85,0.00,,,0.00,WeatherCatV1.21B27,2013-10-13 08:48:00,
2013-10-13 04:49:00,53.7,49.3,30.39,ESE,121,1.0,5.0,85,0.00,,,0.00,WeatherCatV1.21B27,2013-10-13 08:49:00,
2013-10-13 04:51:00,53.7,49.3,30.39,SSE,158,4.0,6.0,85,0.00,,,0.00,WeatherCatV1.21B27,2013-10-13 08:51:00,
2013-10-13 04:52:00,53.7,49.3,30.39,SE,138,0.0,6.0,85,0.00,,,0.00,WeatherCatV1.21B27,2013-10-13 08:52:00,
2013-10-13 04:53:00,53.7,49.3,30.39,ESE,113,0.0,12.0,85,0.00,,,0.00,WeatherCatV1.21B27,2013-10-13 08:53:00,
2013-10-13 04:54:00,53.7,49.3,30.39,ESE,113,0.0,12.0,85,0.00,,,0.00,WeatherCatV1.21B27,2013-10-13 08:54:00,
2013-10-13 04:56:00,53.7,49.3,30.39,SSE,155,1.0,6.0,85,0.00,,,0.00,WeatherCatV1.21B27,2013-10-13 08:56:00,
2013-10-13 04:57:00,53.7,49.3,30.40,ESE,109,0.0,7.0,85,0.00,,,0.00,WeatherCatV1.21B27,2013-10-13 08:57:00,
2013-10-13 04:58:00,53.7,49.3,30.39,ESE,117,8.0,8.0,85,0.00,,,0.00,WeatherCatV1.21B27,2013-10-13 08:58:00,
2013-10-13 04:59:00,53.7,49.3,30.39,ESE,106,6.0,8.0,85,0.00,,,0.00,WeatherCatV1.21B27,2013-10-13 08:59:00,
2013-10-13 05:01:00,53.8,49.4,30.39,ESE,116,2.0,9.0,85,0.00,,,0.00,WeatherCatV1.21B27,2013-10-13 09:01:00,
2013-10-13 05:02:00,53.8,49.4,30.39,East,94,2.0,7.0,85,0.00,,,0.00,WeatherCatV1.21B27,2013-10-13 09:02:00,
2013-10-13 05:03:00,53.8,49.4,30.39,ESE,110,6.0,8.0,85,0.00,,,0.00,WeatherCatV1.21B27,2013-10-13 09:03:00,
2013-10-13 05:04:00,53.8,49.4,30.39,East,96,1.0,8.0,85,0.00,,,0.00,WeatherCatV1.21B27,2013-10-13 09:04:00,
2013-10-13 05:06:00,53.7,49.3,30.39,SSE,155,2.0,6.0,85,0.00,,,0.00,WeatherCatV1.21B27,2013-10-13 09:06:00,
2013-10-13 05:07:00,53.7,49.3,30.40,SE,128,5.0,9.0,85,0.00,,,0.00,WeatherCatV1.21B27,2013-10-13 09:07:00,
2013-10-13 05:08:00,53.7,49.3,30.40,SE,127,2.0,9.0,85,0.00,,,0.00,WeatherCatV1.21B27,2013-10-13 09:08:00,
2013-10-13 05:09:00,53.7,49.3,30.40,ESE,122,7.0,11.0,85,0.00,,,0.00,WeatherCatV1.21B27,2013-10-13 09:09:00,
2013-10-13 05:10:00,53.7,49.3,30.40,SE,127,2.0,12.0,85,0.00,,,0.00,WeatherCatV1.21B27,2013-10-13 09:10:00,
2013-10-13 05:11:00,53.7,49.3,30.39,East,86,2.0,12.0,85,0.00,,,0.00,WeatherCatV1.21B27,2013-10-13 09:11:00,
2013-10-13 05:13:00,53.7,49.3,30.40,ESE,103,8.0,8.0,85,0.00,,,0.00,WeatherCatV1.21B27,2013-10-13 09:13:00,
2013-10-13 05:14:00,53.7,49.3,30.40,East,92,6.0,12.0,85,0.00,,,0.00,WeatherCatV1.21B27,2013-10-13 09:14:00,
2013-10-13 05:15:00,53.7,49.0,30.40,East,95,5.0,12.0,84,0.00,,,0.00,WeatherCatV1.21B27,2013-10-13 09:15:00,
2013-10-13 05:16:00,53.7,49.0,30.40,SE,130,4.0,8.0,84,0.00,,,0.00,WeatherCatV1.21B27,2013-10-13 09:16:00,
2013-10-13 05:18:00,53.6,49.2,30.40,East,91,4.0,13.0,85,0.00,,,0.00,WeatherCatV1.21B27,2013-10-13 09:18:00,
2013-10-13 05:19:00,53.7,49.0,30.40,SE,143,4.0,13.0,84,0.00,,,0.00,WeatherCatV1.21B27,2013-10-13 09:19:00,
2013-10-13 05:20:00,53.7,49.3,30.40,SE,144,4.0,8.0,85,0.00,,,0.00,WeatherCatV1.21B27,2013-10-13 09:20:00,
2013-10-13 05:21:00,53.6,49.2,30.40,SE,131,9.0,9.0,85,0.00,,,0.00,WeatherCatV1.21B27,2013-10-13 09:21:00,
2013-10-13 05:23:00,53.6,49.2,30.40,SSE,148,2.0,11.0,85,0.00,,,0.00,WeatherCatV1.21B27,2013-10-13 09:23:00,
2013-10-13 05:24:00,53.6,49.2,30.40,SSE,161,5.0,12.0,85,0.00,,,0.00,WeatherCatV1.21B27,2013-10-13 09:24:00,
2013-10-13 05:25:00,53.6,49.2,30.40,SSE,150,1.0,12.0,85,0.00,,,0.00,WeatherCatV1.21B27,2013-10-13 09:25:00,
2013-10-13 05:26:00,53.6,49.2,30.40,SE,142,2.0,11.0,85,0.00,,,0.00,WeatherCatV1.21B27,2013-10-13 09:26:00,
2013-10-13 05:28:00,53.6,49.2,30.40,SSE,157,5.0,7.0,85,0.00,,,0.00,WeatherCatV1.21B27,2013-10-13 09:28:00,
2013-10-13 05:29:00,53.5,49.1,30.40,SSE,155,2.0,7.0,85,0.00,,,0.00,WeatherCatV1.21B27,2013-10-13 09:29:00,
2013-10-13 05:30:00,53.5,49.1,30.40,ESE,111,9.0,9.0,85,0.00,,,0.00,WeatherCatV1.21B27,2013-10-13 09:30:00,
2013-10-13 05:31:00,53.6,49.2,30.40,ESE,117,6.0,9.0,85,0.00,,,0.00,WeatherCatV1.21B27,2013-10-13 09:31:00,
2013-10-13 05:34:00,53.6,49.2,30.40,SSE,155,2.0,8.0,85,0.00,,,0.00,WeatherCatV1.21B27,2013-10-13 09:34:00,
2013-10-13 05:35:00,53.7,49.3,30.40,SE,135,5.0,8.0,85,0.00,,,0.00,WeatherCatV1.21B27,2013-10-13 09:35:00,
2013-10-13 05:36:00,53.7,49.3,30.40,SE,138,4.0,9.0,85,0.00,,,0.00,WeatherCatV1.21B27,2013-10-13 09:36:00,
2013-10-13 05:39:00,53.7,49.3,30.40,SSE,152,4.0,13.0,85,0.00,,,0.00,WeatherCatV1.21B27,2013-10-13 09:39:00,
2013-10-13 05:40:00,53.7,49.3,30.40,SSE,152,0.0,13.0,85,0.00,,,0.00,WeatherCatV1.21B27,2013-10-13 09:40:00,
2013-10-13 05:42:00,53.7,49.3,30.40,SE,140,7.0,15.0,85,0.00,,,0.00,WeatherCatV1.21B27,2013-10-13 09:42:00,
2013-10-13 05:44:00,53.8,49.4,30.40,SE,146,2.0,7.0,85,0.00,,,0.00,WeatherCatV1.21B27,2013-10-13 09:44:00,
2013-10-13 05:45:00,53.7,49.3,30.40,SE,138,4.0,6.0,85,0.00,,,0.00,WeatherCatV1.21B27,2013-10-13 09:45:00,
2013-10-13 05:46:00,53.8,49.4,30.40,ESE,117,2.0,5.0,85,0.00,,,0.00,WeatherCatV1.21B27,2013-10-13 09:46:00,
2013-10-13 05:47:00,53.8,49.1,30.40,ENE,71,6.0,12.0,84,0.00,,,0.00,WeatherCatV1.21B27,2013-10-13 09:47:00,
2013-10-13 05:49:00,53.8,49.4,30.41,ESE,105,2.0,11.0,85,0.00,,,0.00,WeatherCatV1.21B27,2013-10-13 09:49:00,
2013-10-13 05:50:00,53.8,49.1,30.41,SSE,150,2.0,11.0,84,0.00,,,0.00,WeatherCatV1.21B27,2013-10-13 09:50:00,
2013-10-13 05:51:00,53.8,49.1,30.41,SE,128,7.0,11.0,84,0.00,,,0.00,WeatherCatV1.21B27,2013-10-13 09:51:00,
2013-10-13 05:52:00,53.8,49.1,30.41,SE,128,6.0,8.0,84,0.00,,,0.00,WeatherCatV1.21B27,2013-10-13 09:52:00,
2013-10-13 05:54:00,53.8,49.1,30.41,ESE,111,9.0,10.0,84,0.00,,,0.00,WeatherCatV1.21B27,2013-10-13 09:54:00,
2013-10-13 05:55:00,53.8,49.1,30.41,SE,126,5.0,14.0,84,0.00,,,0.00,WeatherCatV1.21B27,2013-10-13 09:55:00,
2013-10-13 05:56:00,53.8,49.1,30.41,ESE,117,4.0,14.0,84,0.00,,,0.00,WeatherCatV1.21B27,2013-10-13 09:56:00,
2013-10-13 05:57:00,53.8,49.1,30.41,SE,130,6.0,16.0,84,0.00,,,0.00,WeatherCatV1.21B27,2013-10-13 09:57:00,
2013-10-13 05:59:00,53.9,49.2,30.41,South,171,9.0,9.0,84,0.00,,,0.00,WeatherCatV1.21B27,2013-10-13 09:59:00,
2013-10-13 06:00:00,53.9,48.9,30.41,ESE,111,6.0,12.0,83,0.00,,,0.00,WeatherCatV1.21B27,2013-10-13 10:00:00,
2013-10-13 06:01:00,53.9,48.9,30.41,SSE,167,2.0,12.0,83,0.00,,,0.00,WeatherCatV1.21B27,2013-10-13 10:01:00,
2013-10-13 06:02:00,53.9,49.2,30.41,East,86,4.0,12.0,84,0.00,,,0.00,WeatherCatV1.21B27,2013-10-13 10:02:00,
2013-10-13 06:03:00,53.9,49.2,30.41,ESE,105,2.0,9.0,84,0.00,,,0.00,WeatherCatV1.21B27,2013-10-13 10:03:00,
2013-10-13 06:05:00,53.9,49.2,30.41,ESE,118,2.0,9.0,84,0.00,,,0.00,WeatherCatV1.21B27,2013-10-13 10:05:00,
2013-10-13 06:06:00,53.8,49.1,30.41,SE,130,7.0,8.0,84,0.00,,,0.00,WeatherCatV1.21B27,2013-10-13 10:06:00,
2013-10-13 06:07:00,53.8,49.1,30.41,ESE,111,4.0,7.0,84,0.00,,,0.00,WeatherCatV1.21B27,2013-10-13 10:07:00,
2013-10-13 06:08:00,53.8,49.1,30.41,East,93,7.0,10.0,84,0.00,,,0.00,WeatherCatV1.21B27,2013-10-13 10:08:00,
2013-10-13 06:10:00,53.8,49.1,30.41,ESE,123,4.0,13.0,84,0.00,,,0.00,WeatherCatV1.21B27,2013-10-13 10:10:00,
2013-10-13 06:11:00,53.7,49.0,30.41,SSE,154,2.0,6.0,84,0.00,,,0.00,WeatherCatV1.21B27,2013-10-13 10:11:00,
2013-10-13 06:12:00,53.7,49.0,30.41,SE,136,4.0,6.0,84,0.00,,,0.00,WeatherCatV1.21B27,2013-10-13 10:12:00,
2013-10-13 06:13:00,53.7,49.0,30.41,SE,136,2.0,6.0,84,0.00,,,0.00,WeatherCatV1.21B27,2013-10-13 10:13:00,
2013-10-13 06:15:00,53.7,49.0,30.41,SE,125,4.0,7.0,84,0.00,,,0.00,WeatherCatV1.21B27,2013-10-13 10:15:00,
2013-10-13 06:16:00,53.6,48.9,30.41,SSE,165,2.0,6.0,84,0.00,,,0.00,WeatherCatV1.21B27,2013-10-13 10:16:00,
2013-10-13 06:17:00,53.6,48.9,30.41,ESE,113,8.0,12.0,84,0.00,,,0.00,WeatherCatV1.21B27,2013-10-13 10:17:00,
2013-10-13 06:18:00,53.5,48.8,30.41,SSE,148,7.0,12.0,84,0.00,,,0.00,WeatherCatV1.21B27,2013-10-13 10:18:00,
2013-10-13 06:20:00,53.6,48.6,30.41,SE,138,6.0,12.0,83,0.00,,,0.00,WeatherCatV1.21B27,2013-10-13 10:20:00,
2013-10-13 06:21:00,53.7,48.7,30.41,ESE,123,5.0,12.0,83,0.00,,,0.00,WeatherCatV1.21B27,2013-10-13 10:21:00,
2013-10-13 06:22:00,53.7,48.7,30.41,ESE,119,5.0,12.0,83,0.00,,,0.00,WeatherCatV1.21B27,2013-10-13 10:22:00,
2013-10-13 06:23:00,53.7,48.7,30.41,East,92,2.0,11.0,83,0.00,,,0.00,WeatherCatV1.21B27,2013-10-13 10:23:00,
2013-10-13 06:25:00,53.8,48.8,30.41,ESE,112,7.0,9.0,83,0.00,,,0.00,WeatherCatV1.21B27,2013-10-13 10:25:00,
2013-10-13 06:26:00,53.8,48.4,30.41,East,98,8.0,9.0,82,0.00,,,0.00,WeatherCatV1.21B27,2013-10-13 10:26:00,
2013-10-13 06:27:00,53.8,48.4,30.41,East,85,4.0,8.0,82,0.00,,,0.00,WeatherCatV1.21B27,2013-10-13 10:27:00,
2013-10-13 06:28:00,53.8,48.8,30.41,SSE,153,1.0,8.0,83,0.00,,,0.00,WeatherCatV1.21B27,2013-10-13 10:28:00,
2013-10-13 06:30:00,53.8,48.8,30.41,ESE,123,8.0,8.0,83,0.00,,,0.00,WeatherCatV1.21B27,2013-10-13 10:30:00,
2013-10-13 06:31:00,53.8,48.8,30.41,SSE,147,4.0,8.0,83,0.00,,,0.00,WeatherCatV1.21B27,2013-10-13 10:31:00,
2013-10-13 06:32:00,53.8,48.8,30.41,SE,131,8.0,11.0,83,0.00,,,0.00,WeatherCatV1.21B27,2013-10-13 10:32:00,
2013-10-13 06:33:00,53.8,48.8,30.41,ESE,120,8.0,11.0,83,0.00,,,0.00,WeatherCatV1.21B27,2013-10-13 10:33:00,
2013-10-13 06:35:00,53.8,48.8,30.41,SE,138,7.0,11.0,83,0.00,,,0.00,WeatherCatV1.21B27,2013-10-13 10:35:00,
2013-10-13 06:37:00,53.8,48.8,30.41,SE,142,4.0,7.0,83,0.00,,,0.00,WeatherCatV1.21B27,2013-10-13 10:37:00,
2013-10-13 06:38:00,53.8,48.8,30.41,SSE,167,1.0,7.0,83,0.00,,,0.00,WeatherCatV1.21B27,2013-10-13 10:38:00,
2013-10-13 06:39:00,53.8,48.8,30.41,SE,131,4.0,5.0,83,0.00,,,0.00,WeatherCatV1.21B27,2013-10-13 10:39:00,
2013-10-13 06:40:00,53.8,48.8,30.41,SE,144,4.0,5.0,83,0.00,,,0.00,WeatherCatV1.21B27,2013-10-13 10:40:00,
2013-10-13 06:43:00,53.8,48.8,30.42,East,98,6.0,8.0,83,0.00,,,0.00,WeatherCatV1.21B27,2013-10-13 10:43:00,
2013-10-13 06:44:00,53.8,48.8,30.42,SE,124,0.0,8.0,83,0.00,,,0.00,WeatherCatV1.21B27,2013-10-13 10:44:00,
2013-10-13 06:46:00,53.8,48.8,30.41,East,85,3.0,5.0,83,0.00,,,0.00,WeatherCatV1.21B27,2013-10-13 10:46:00,
2013-10-13 06:48:00,53.8,48.8,30.42,SE,130,4.0,7.0,83,0.00,,,0.00,WeatherCatV1.21B27,2013-10-13 10:48:00,
2013-10-13 06:49:00,53.8,48.8,30.42,SE,140,5.0,10.0,83,0.00,,,0.00,WeatherCatV1.21B27,2013-10-13 10:49:00,
2013-10-13 06:51:00,53.7,48.7,30.42,SE,134,1.0,6.0,83,0.00,,,0.00,WeatherCatV1.21B27,2013-10-13 10:51:00,
2013-10-13 06:53:00,53.8,48.8,30.42,SE,130,2.0,8.0,83,0.00,,,0.00,WeatherCatV1.21B27,2013-10-13 10:53:00,
2013-10-13 06:54:00,53.8,48.8,30.42,East,81,2.0,7.0,83,0.00,,,0.00,WeatherCatV1.21B27,2013-10-13 10:54:00,
2013-10-13 06:55:00,53.8,48.8,30.42,ESE,123,4.0,8.0,83,0.00,,,0.00,WeatherCatV1.21B27,2013-10-13 10:55:00,
2013-10-13 06:56:00,53.8,48.8,30.42,SE,145,0.0,8.0,83,0.00,,,0.00,WeatherCatV1.21B27,2013-10-13 10:56:00,
2013-10-13 06:58:00,53.8,48.8,30.42,SE,132,1.0,6.0,83,0.00,,,0.00,WeatherCatV1.21B27,2013-10-13 10:58:00,
2013-10-13 06:59:00,53.8,48.8,30.42,SE,133,2.0,6.0,83,0.00,,,0.00,WeatherCatV1.21B27,2013-10-13 10:59:00,
2013-10-13 07:00:00,53.8,49.1,30.42,East,98,5.0,6.0,84,0.00,,,0.00,WeatherCatV1.21B27,2013-10-13 11:00:00,
2013-10-13 07:01:00,53.8,48.8,30.42,East,94,6.0,9.0,83,0.00,,,0.00,WeatherCatV1.21B27,2013-10-13 11:01:00,
2013-10-13 07:04:00,53.8,48.8,30.42,SE,138,5.0,11.0,83,0.00,,,0.00,WeatherCatV1.21B27,2013-10-13 11:04:00,
2013-10-13 07:05:00,53.8,48.8,30.42,SE,131,1.0,11.0,83,0.00,,,0.00,WeatherCatV1.21B27,2013-10-13 11:05:00,
2013-10-13 07:06:00,53.8,48.8,30.42,SE,128,4.0,7.0,83,0.00,,,0.00,WeatherCatV1.21B27,2013-10-13 11:06:00,
2013-10-13 07:09:00,53.8,48.8,30.42,SE,137,7.0,8.0,83,0.00,,,0.00,WeatherCatV1.21B27,2013-10-13 11:09:00,
2013-10-13 07:10:00,53.8,48.8,30.42,SSE,147,2.0,8.0,83,0.00,,,0.00,WeatherCatV1.21B27,2013-10-13 11:10:00,
2013-10-13 07:11:00,53.8,48.8,30.42,ESE,108,2.0,8.0,83,0.00,,,0.00,WeatherCatV1.21B27,2013-10-13 11:11:00,
2013-10-13 07:14:00,53.8,48.8,30.43,SSE,155,5.0,5.0,83,0.00,,,0.00,WeatherCatV1.21B27,2013-10-13 11:14:00,
2013-10-13 07:15:00,53.8,48.8,30.43,SSE,148,2.0,5.0,83,0.00,,,0.00,WeatherCatV1.21B27,2013-10-13 11:15:00,
2013-10-13 07:16:00,53.9,48.9,30.43,ESE,120,4.0,7.0,83,0.00,,,0.00,WeatherCatV1.21B27,2013-10-13 11:16:00,
2013-10-13 07:17:00,53.9,48.5,30.43,East,90,2.0,7.0,82,0.00,,,0.00,WeatherCatV1.21B27,2013-10-13 11:17:00,
2013-10-13 07:19:00,53.9,48.5,30.43,East,100,8.0,8.0,82,0.00,,,0.00,WeatherCatV1.21B27,2013-10-13 11:19:00,
2013-10-13 07:20:00,53.9,48.5,30.43,ESE,119,6.0,11.0,82,0.00,,,0.00,WeatherCatV1.21B27,2013-10-13 11:20:00,
2013-10-13 07:21:00,53.9,48.5,30.43,ESE,109,2.0,11.0,82,0.00,,,0.00,WeatherCatV1.21B27,2013-10-13 11:21:00,
2013-10-13 07:22:00,53.9,48.5,30.43,SE,146,5.0,8.0,82,0.00,,,0.00,WeatherCatV1.21B27,2013-10-13 11:22:00,
2013-10-13 07:24:00,54.0,48.6,30.43,ESE,103,9.0,12.0,82,0.00,,,0.00,WeatherCatV1.21B27,2013-10-13 11:24:00,
2013-10-13 07:25:00,54.0,48.6,30.43,SE,132,4.0,12.0,82,0.00,,,0.00,WeatherCatV1.21B27,2013-10-13 11:25:00,
2013-10-13 07:26:00,54.1,48.7,30.43,SE,146,5.0,12.0,82,0.00,,,0.00,WeatherCatV1.21B27,2013-10-13 11:26:00,
2013-10-13 07:27:00,54.1,48.7,30.43,SE,146,1.0,7.0,82,0.00,,,0.00,WeatherCatV1.21B27,2013-10-13 11:27:00,
2013-10-13 07:29:00,54.1,48.4,30.43,SE,143,5.0,16.0,81,0.00,,,0.00,WeatherCatV1.21B27,2013-10-13 11:29:00,
2013-10-13 07:30:00,54.2,48.2,30.43,SE,126,2.0,16.0,80,0.00,,,0.00,WeatherCatV1.21B27,2013-10-13 11:30:00,
2013-10-13 07:31:00,54.2,48.5,30.43,SE,144,2.0,16.0,81,0.00,,,0.00,WeatherCatV1.21B27,2013-10-13 11:31:00,
2013-10-13 07:32:00,54.2,48.2,30.43,ESE,107,7.0,9.0,80,0.00,,,0.00,WeatherCatV1.21B27,2013-10-13 11:32:00,
2013-10-13 07:35:00,54.3,48.3,30.43,ESE,123,7.0,12.0,80,0.00,,,0.00,WeatherCatV1.21B27,2013-10-13 11:35:00,
2013-10-13 07:36:00,54.3,48.3,30.43,SE,126,2.0,12.0,80,0.00,,,0.00,WeatherCatV1.21B27,2013-10-13 11:36:00,
2013-10-13 07:37:00,54.3,48.3,30.44,SE,142,5.0,11.0,80,0.00,,,0.00,WeatherCatV1.21B27,2013-10-13 11:37:00,
2013-10-13 07:40:00,54.4,48.4,30.44,SSE,158,5.0,10.0,80,0.00,,,0.00,WeatherCatV1.21B27,2013-10-13 11:40:00,
2013-10-13 07:41:00,54.4,48.4,30.44,ESE,105,11.0,14.0,80,0.00,,,0.00,WeatherCatV1.21B27,2013-10-13 11:41:00,
2013-10-13 07:42:00,54.5,48.5,30.44,SE,136,2.0,14.0,80,0.00,,,0.00,WeatherCatV1.21B27,2013-10-13 11:42:00,
2013-10-13 07:45:00,54.5,48.5,30.44,SE,145,4.0,8.0,80,0.00,,,0.00,WeatherCatV1.21B27,2013-10-13 11:45:00,
2013-10-13 07:46:00,54.5,48.5,30.44,ESE,118,9.0,9.0,80,0.00,,,0.00,WeatherCatV1.21B27,2013-10-13 11:46:00,
2013-10-13 07:47:00,54.6,48.5,30.44,ESE,106,1.0,12.0,80,0.00,,,0.00,WeatherCatV1.21B27,2013-10-13 11:47:00,
2013-10-13 07:48:00,54.6,48.5,30.44,ESE,118,1.0,12.0,80,0.00,,,0.00,WeatherCatV1.21B27,2013-10-13 11:48:00,
2013-10-13 07:50:00,54.6,48.5,30.44,SSE,147,8.0,13.0,80,0.00,,,0.00,WeatherCatV1.21B27,2013-10-13 11:50:00,
2013-10-13 07:51:00,54.6,48.5,30.44,ESE,110,4.0,13.0,80,0.00,,,0.00,WeatherCatV1.21B27,2013-10-13 11:51:00,
2013-10-13 07:52:00,54.6,48.2,30.44,East,96,4.0,8.0,79,0.00,,,0.00,WeatherCatV1.21B27,2013-10-13 11:52:00,
2013-10-13 07:53:00,54.6,48.2,30.44,ESE,103,5.0,8.0,79,0.00,,,0.00,WeatherCatV1.21B27,2013-10-13 11:53:00,
2013-10-13 07:55:00,54.6,48.5,30.44,SE,129,9.0,9.0,80,0.00,,,0.00,WeatherCatV1.21B27,2013-10-13 11:55:00,
2013-10-13 07:56:00,54.6,48.2,30.44,SE,140,8.0,15.0,79,0.00,,,0.00,WeatherCatV1.21B27,2013-10-13 11:56:00,
2013-10-13 07:58:00,54.7,48.3,30.44,SE,126,4.0,15.0,79,0.00,,,0.00,WeatherCatV1.21B27,2013-10-13 11:58:00,
2013-10-13 08:00:00,55.0,48.3,30.44,SE,124,2.0,11.0,78,0.00,,,0.00,WeatherCatV1.21B27,2013-10-13 12:00:00,
2013-10-13 08:01:00,55.0,48.3,30.44,ESE,111,7.0,11.0,78,0.00,,,0.00,WeatherCatV1.21B27,2013-10-13 12:01:00,
2013-10-13 08:03:00,55.1,48.7,30.44,East,94,4.0,7.0,79,0.00,,,0.00,WeatherCatV1.21B27,2013-10-13 12:03:00,
2013-10-13 08:06:00,55.3,48.9,30.44,SSE,161,4.0,6.0,79,0.00,,,0.00,WeatherCatV1.21B27,2013-10-13 12:06:00,
2013-10-13 08:08:00,55.3,48.6,30.44,ESE,120,6.0,11.0,78,0.00,,,0.00,WeatherCatV1.21B27,2013-10-13 12:08:00,
2013-10-13 08:09:00,55.3,48.6,30.44,SSE,155,4.0,11.0,78,0.00,,,0.00,WeatherCatV1.21B27,2013-10-13 12:09:00,
2013-10-13 08:11:00,55.3,48.2,30.44,SE,130,7.0,12.0,77,0.00,,,0.00,WeatherCatV1.21B27,2013-10-13 12:11:00,
2013-10-13 08:13:00,55.3,48.6,30.44,SSE,155,7.0,10.0,78,0.00,,,0.00,WeatherCatV1.21B27,2013-10-13 12:13:00,
2013-10-13 08:14:00,55.2,48.5,30.44,ESE,108,9.0,12.0,78,0.00,,,0.00,WeatherCatV1.21B27,2013-10-13 12:14:00,
2013-10-13 08:16:00,55.2,48.5,30.45,SSE,155,8.0,14.0,78,0.00,,,0.00,WeatherCatV1.21B27,2013-10-13 12:16:00,
2013-10-13 08:18:00,55.2,48.5,30.45,SE,126,4.0,7.0,78,0.00,,,0.00,WeatherCatV1.21B27,2013-10-13 12:18:00,
2013-10-13 08:19:00,55.2,48.5,30.45,SE,125,5.0,7.0,78,0.00,,,0.00,WeatherCatV1.21B27,2013-10-13 12:19:00,
2013-10-13 08:21:00,55.2,48.8,30.45,South,173,1.0,12.0,79,0.00,,,0.00,WeatherCatV1.21B27,2013-10-13 12:21:00,
2013-10-13 08:22:00,55.1,48.4,30.45,ESE,119,7.0,7.0,78,0.00,,,0.00,WeatherCatV1.21B27,2013-10-13 12:22:00,
2013-10-13 08:23:00,55.1,48.4,30.45,South,172,2.0,7.0,78,0.00,,,0.00,WeatherCatV1.21B27,2013-10-13 12:23:00,
2013-10-13 08:24:00,55.1,48.4,30.45,ENE,72,3.0,7.0,78,0.00,,,0.00,WeatherCatV1.21B27,2013-10-13 12:24:00,
2013-10-13 08:26:00,55.1,48.4,30.45,SE,146,7.0,10.0,78,0.00,,,0.00,WeatherCatV1.21B27,2013-10-13 12:26:00,
2013-10-13 08:27:00,55.1,48.4,30.45,East,94,5.0,10.0,78,0.00,,,0.00,WeatherCatV1.21B27,2013-10-13 12:27:00,
2013-10-13 08:28:00,55.1,48.4,30.45,ESE,121,5.0,9.0,78,0.00,,,0.00,WeatherCatV1.21B27,2013-10-13 12:28:00,
2013-10-13 08:29:00,55.1,48.4,30.45,SSE,153,6.0,8.0,78,0.00,,,0.00,WeatherCatV1.21B27,2013-10-13 12:29:00,
2013-10-13 08:32:00,55.3,48.9,30.45,East,96,6.0,9.0,79,0.00,,,0.00,WeatherCatV1.21B27,2013-10-13 12:32:00,
2013-10-13 08:33:00,55.4,48.7,30.45,SSE,150,4.0,11.0,78,0.00,,,0.00,WeatherCatV1.21B27,2013-10-13 12:33:00,
2013-10-13 08:34:00,55.4,48.7,30.45,SE,133,6.0,11.0,78,0.00,,,0.00,WeatherCatV1.21B27,2013-10-13 12:34:00,
2013-10-13 08:37:00,55.6,48.8,30.45,SSE,162,2.0,11.0,78,0.00,,,0.00,WeatherCatV1.21B27,2013-10-13 12:37:00,
2013-10-13 08:38:00,55.6,48.8,30.45,SE,128,6.0,10.0,78,0.00,,,0.00,WeatherCatV1.21B27,2013-10-13 12:38:00,
2013-10-13 08:39:00,55.7,49.0,30.45,South,188,3.0,8.0,78,0.00,,,0.00,WeatherCatV1.21B27,2013-10-13 12:39:00,
2013-10-13 08:42:00,55.9,48.8,30.45,SSE,155,5.0,10.0,77,0.00,,,0.00,WeatherCatV1.21B27,2013-10-13 12:42:00,
2013-10-13 08:43:00,55.9,48.8,30.45,SE,130,5.0,13.0,77,0.00,,,0.00,WeatherCatV1.21B27,2013-10-13 12:43:00,
2013-10-13 08:44:00,55.9,48.8,30.45,ESE,107,1.0,13.0,77,0.00,,,0.00,WeatherCatV1.21B27,2013-10-13 12:44:00,
2013-10-13 08:45:00,56.0,48.9,30.45,SE,134,6.0,8.0,77,0.00,,,0.00,WeatherCatV1.21B27,2013-10-13 12:45:00,
2013-10-13 08:47:00,56.0,48.9,30.45,SE,131,4.0,11.0,77,0.00,,,0.00,WeatherCatV1.21B27,2013-10-13 12:47:00,
2013-10-13 08:48:00,56.0,48.9,30.45,SSE,162,6.0,8.0,77,0.00,,,0.00,WeatherCatV1.21B27,2013-10-13 12:48:00,
2013-10-13 08:49:00,56.0,48.9,30.45,SE,128,4.0,8.0,77,0.00,,,0.00,WeatherCatV1.21B27,2013-10-13 12:49:00,
2013-10-13 08:50:00,56.0,48.9,30.46,SSE,165,5.0,8.0,77,0.00,,,0.00,WeatherCatV1.21B27,2013-10-13 12:50:00,
2013-10-13 08:52:00,55.9,48.4,30.46,SE,129,7.0,7.0,76,0.00,,,0.00,WeatherCatV1.21B27,2013-10-13 12:52:00,
2013-10-13 08:53:00,55.9,48.4,30.46,SSE,163,7.0,9.0,76,0.00,,,0.00,WeatherCatV1.21B27,2013-10-13 12:53:00,
2013-10-13 08:54:00,55.8,48.3,30.46,SSE,159,7.0,9.0,76,0.00,,,0.00,WeatherCatV1.21B27,2013-10-13 12:54:00,
2013-10-13 08:55:00,55.8,48.3,30.45,SSE,155,10.0,10.0,76,0.00,,,0.00,WeatherCatV1.21B27,2013-10-13 12:55:00,
2013-10-13 08:56:00,55.8,48.7,30.46,SSE,159,8.0,13.0,77,0.00,,,0.00,WeatherCatV1.21B27,2013-10-13 12:56:00,
2013-10-13 08:58:00,55.8,48.7,30.46,ESE,105,0.0,8.0,77,0.00,,,0.00,WeatherCatV1.21B27,2013-10-13 12:58:00,
2013-10-13 08:59:00,55.8,48.7,30.46,SE,143,1.0,7.0,77,0.00,,,0.00,WeatherCatV1.21B27,2013-10-13 12:59:00,
2013-10-13 09:00:00,55.8,49.0,30.46,SSE,160,5.0,7.0,78,0.00,,,0.00,WeatherCatV1.21B27,2013-10-13 13:00:00,
2013-10-13 09:01:00,55.9,49.1,30.46,SE,138,1.0,11.0,78,0.00,,,0.00,WeatherCatV1.21B27,2013-10-13 13:01:00,
2013-10-13 09:03:00,55.9,48.8,30.46,SSE,165,4.0,12.0,77,0.00,,,0.00,WeatherCatV1.21B27,2013-10-13 13:03:00,
2013-10-13 09:04:00,55.9,48.8,30.46,ESE,115,7.0,12.0,77,0.00,,,0.00,WeatherCatV1.21B27,2013-10-13 13:04:00,
2013-10-13 09:05:00,55.9,48.8,30.46,ESE,119,2.0,8.0,77,0.00,,,0.00,WeatherCatV1.21B27,2013-10-13 13:05:00,
2013-10-13 09:06:00,55.9,48.8,30.46,SSE,167,1.0,6.0,77,0.00,,,0.00,WeatherCatV1.21B27,2013-10-13 13:06:00,
2013-10-13 09:08:00,55.9,49.1,30.46,SE,145,6.0,8.0,78,0.00,,,0.00,WeatherCatV1.21B27,2013-10-13 13:08:00,
2013-10-13 09:09:00,55.9,48.8,30.46,East,88,6.0,12.0,77,0.00,,,0.00,WeatherCatV1.21B27,2013-10-13 13:09:00,
2013-10-13 09:10:00,56.0,48.9,30.46,SE,128,5.0,12.0,77,0.00,,,0.00,WeatherCatV1.21B27,2013-10-13 13:10:00,
2013-10-13 09:11:00,56.0,48.9,30.46,SE,140,6.0,12.0,77,0.00,,,0.00,WeatherCatV1.21B27,2013-10-13 13:11:00,
2013-10-13 09:13:00,56.2,48.7,30.46,South,169,6.0,9.0,76,0.00,,,0.00,WeatherCatV1.21B27,2013-10-13 13:13:00,
2013-10-13 09:14:00,56.3,49.2,30.46,South,169,4.0,7.0,77,0.00,,,0.00,WeatherCatV1.21B27,2013-10-13 13:14:00,
2013-10-13 09:15:00,56.4,49.3,30.46,SSE,150,4.0,7.0,77,0.00,,,0.00,WeatherCatV1.21B27,2013-10-13 13:15:00,
2013-10-13 09:16:00,56.4,48.9,30.46,SE,126,6.0,7.0,76,0.00,,,0.00,WeatherCatV1.21B27,2013-10-13 13:16:00,
2013-10-13 09:17:00,56.4,48.2,30.46,SE,125,4.0,10.0,74,0.00,,,0.00,WeatherCatV1.21B27,2013-10-13 13:17:00,
2013-10-13 09:18:00,56.4,48.2,30.46,SSE,148,8.0,11.0,74,0.00,,,0.00,WeatherCatV1.21B27,2013-10-13 13:18:00,
2013-10-13 09:19:00,56.3,48.1,30.46,SE,143,7.0,12.0,74,0.00,,,0.00,WeatherCatV1.21B27,2013-10-13 13:19:00,
2013-10-13 09:21:00,56.3,48.5,30.46,SE,144,10.0,13.0,75,0.00,,,0.00,WeatherCatV1.21B27,2013-10-13 13:21:00,
2013-10-13 09:22:00,56.3,48.1,30.46,ESE,109,7.0,12.0,74,0.00,,,0.00,WeatherCatV1.21B27,2013-10-13 13:22:00,
2013-10-13 09:23:00,56.3,48.1,30.46,SE,144,4.0,13.0,74,0.00,,,0.00,WeatherCatV1.21B27,2013-10-13 13:23:00,
2013-10-13 09:24:00,56.4,48.6,30.46,ESE,115,5.0,13.0,75,0.00,,,0.00,WeatherCatV1.21B27,2013-10-13 13:24:00,
2013-10-13 09:25:00,56.4,48.6,30.46,SSE,148,4.0,8.0,75,0.00,,,0.00,WeatherCatV1.21B27,2013-10-13 13:25:00,
2013-10-13 09:26:00,56.4,48.6,30.46,SSE,148,2.0,6.0,75,0.00,,,0.00,WeatherCatV1.21B27,2013-10-13 13:26:00,
2013-10-13 09:27:00,56.4,48.6,30.46,SSE,148,1.0,4.0,75,0.00,,,0.00,WeatherCatV1.21B27,2013-10-13 13:27:00,
2013-10-13 09:28:00,56.6,48.4,30.46,SE,128,8.0,9.0,74,0.00,,,0.00,WeatherCatV1.21B27,2013-10-13 13:28:00,
2013-10-13 09:29:00,56.6,48.4,30.46,SSE,149,4.0,12.0,74,0.00,,,0.00,WeatherCatV1.21B27,2013-10-13 13:29:00,
2013-10-13 09:30:00,56.6,48.4,30.47,SE,126,13.0,13.0,74,0.00,,,0.00,WeatherCatV1.21B27,2013-10-13 13:30:00,
2013-10-13 09:31:00,56.6,48.4,30.46,SSE,166,2.0,13.0,74,0.00,,,0.00,WeatherCatV1.21B27,2013-10-13 13:31:00,
2013-10-13 09:32:00,56.7,48.5,30.47,South,173,5.0,7.0,74,0.00,,,0.00,WeatherCatV1.21B27,2013-10-13 13:32:00,
2013-10-13 09:34:00,56.7,48.5,30.47,SE,145,4.0,11.0,74,0.00,,,0.00,WeatherCatV1.21B27,2013-10-13 13:34:00,
2013-10-13 09:36:00,56.7,48.1,30.46,SE,129,4.0,7.0,73,0.00,,,0.00,WeatherCatV1.21B27,2013-10-13 13:36:00,
2013-10-13 09:37:00,56.7,48.1,30.46,SE,146,9.0,16.0,73,0.00,,,0.00,WeatherCatV1.21B27,2013-10-13 13:37:00,
2013-10-13 09:39:00,56.7,48.1,30.47,ESE,117,4.0,16.0,73,0.00,,,0.00,WeatherCatV1.21B27,2013-10-13 13:39:00,
2013-10-13 09:41:00,56.7,48.1,30.47,SE,135,9.0,9.0,73,0.00,,,0.00,WeatherCatV1.21B27,2013-10-13 13:41:00,
2013-10-13 09:42:00,56.9,48.7,30.46,South,172,5.0,9.0,74,0.00,,,0.00,WeatherCatV1.21B27,2013-10-13 13:42:00,
2013-10-13 09:43:00,56.9,48.7,30.46,South,186,5.0,9.0,74,0.00,,,0.00,WeatherCatV1.21B27,2013-10-13 13:43:00,
2013-10-13 09:44:00,57.1,48.5,30.47,SE,139,9.0,10.0,73,0.00,,,0.00,WeatherCatV1.21B27,2013-10-13 13:44:00,
2013-10-13 09:45:00,57.2,48.2,30.46,East,96,4.0,10.0,72,0.00,,,0.00,WeatherCatV1.21B27,2013-10-13 13:45:00,
2013-10-13 09:47:00,57.4,48.8,30.46,SSW,192,6.0,8.0,73,0.00,,,0.00,WeatherCatV1.21B27,2013-10-13 13:47:00,
2013-10-13 09:48:00,57.3,48.3,30.46,SE,144,7.0,15.0,72,0.00,,,0.00,WeatherCatV1.21B27,2013-10-13 13:48:00,
2013-10-13 09:49:00,57.3,48.3,30.46,ESE,108,5.0,15.0,72,0.00,,,0.00,WeatherCatV1.21B27,2013-10-13 13:49:00,
2013-10-13 09:50:00,57.3,48.3,30.46,South,170,6.0,15.0,72,0.00,,,0.00,WeatherCatV1.21B27,2013-10-13 13:50:00,
2013-10-13 09:52:00,57.2,47.9,30.46,SE,146,4.0,14.0,71,0.00,,,0.00,WeatherCatV1.21B27,2013-10-13 13:52:00,
2013-10-13 09:53:00,57.2,48.2,30.46,ESE,121,11.0,13.0,72,0.00,,,0.00,WeatherCatV1.21B27,2013-10-13 13:53:00,
2013-10-13 09:54:00,57.1,47.8,30.47,East,84,7.0,16.0,71,0.00,,,0.00,WeatherCatV1.21B27,2013-10-13 13:54:00,
2013-10-13 09:55:00,57.1,48.2,30.46,SE,128,7.0,9.0,72,0.00,,,0.00,WeatherCatV1.21B27,2013-10-13 13:55:00,
2013-10-13 09:57:00,57.2,48.2,30.46,SE,137,6.0,12.0,72,0.00,,,0.00,WeatherCatV1.21B27,2013-10-13 13:57:00,
2013-10-13 09:58:00,57.2,48.2,30.46,SE,140,4.0,9.0,72,0.00,,,0.00,WeatherCatV1.21B27,2013-10-13 13:58:00,
2013-10-13 10:00:00,57.5,48.9,30.46,SSE,167,4.0,7.0,73,0.00,,,0.00,WeatherCatV1.21B27,2013-10-13 14:00:00,
2013-10-13 10:02:00,57.6,48.6,30.46,East,93,8.0,12.0,72,0.00,,,0.00,WeatherCatV1.21B27,2013-10-13 14:02:00,
2013-10-13 10:03:00,57.6,48.3,30.47,SE,132,5.0,12.0,71,0.00,,,0.00,WeatherCatV1.21B27,2013-10-13 14:03:00,
2013-10-13 10:05:00,57.6,48.3,30.47,SE,141,4.0,8.0,71,0.00,,,0.00,WeatherCatV1.21B27,2013-10-13 14:05:00,
2013-10-13 10:07:00,57.8,48.8,30.47,ESE,123,7.0,8.0,72,0.00,,,0.00,WeatherCatV1.21B27,2013-10-13 14:07:00,
2013-10-13 10:08:00,58.0,48.7,30.47,ESE,118,2.0,15.0,71,0.00,,,0.00,WeatherCatV1.21B27,2013-10-13 14:08:00,
2013-10-13 10:10:00,58.2,48.8,30.47,SSE,160,5.0,11.0,71,0.00,,,0.00,WeatherCatV1.21B27,2013-10-13 14:10:00,
2013-10-13 10:12:00,58.5,48.4,30.47,SSE,161,6.0,11.0,69,0.00,,,0.00,WeatherCatV1.21B27,2013-10-13 14:12:00,
2013-10-13 10:14:00,58.4,47.9,30.47,SSE,163,2.0,19.0,68,0.00,,,0.00,WeatherCatV1.21B27,2013-10-13 14:14:00,
2013-10-13 10:15:00,58.2,47.7,30.47,SSE,155,5.0,13.0,68,0.00,,,0.00,WeatherCatV1.21B27,2013-10-13 14:15:00,
2013-10-13 10:16:00,58.1,48.0,30.47,South,173,12.0,13.0,69,0.00,,,0.00,WeatherCatV1.21B27,2013-10-13 14:16:00,
2013-10-13 10:17:00,57.8,47.7,30.47,SE,144,11.0,13.0,69,0.00,,,0.00,WeatherCatV1.21B27,2013-10-13 14:17:00,
2013-10-13 10:19:00,57.6,47.9,30.47,SSW,200,5.0,11.0,70,0.00,,,0.00,WeatherCatV1.21B27,2013-10-13 14:19:00,
2013-10-13 10:20:00,57.6,47.9,30.47,South,170,2.0,7.0,70,0.00,,,0.00,WeatherCatV1.21B27,2013-10-13 14:20:00,
2013-10-13 10:21:00,57.7,48.4,30.47,SSE,160,4.0,11.0,71,0.00,,,0.00,WeatherCatV1.21B27,2013-10-13 14:21:00,
2013-10-13 10:22:00,57.8,48.1,30.47,SSE,152,2.0,12.0,70,0.00,,,0.00,WeatherCatV1.21B27,2013-10-13 14:22:00,
2013-10-13 10:24:00,57.9,48.2,30.47,SSE,159,4.0,13.0,70,0.00,,,0.00,WeatherCatV1.21B27,2013-10-13 14:24:00,
2013-10-13 10:25:00,58.0,48.7,30.46,ESE,120,11.0,13.0,71,0.00,,,0.00,WeatherCatV1.21B27,2013-10-13 14:25:00,
2013-10-13 10:26:00,58.0,48.3,30.47,East,90,4.0,13.0,70,0.00,,,0.00,WeatherCatV1.21B27,2013-10-13 14:26:00,
2013-10-13 10:27:00,58.1,48.7,30.47,ESE,109,8.0,13.0,71,0.00,,,0.00,WeatherCatV1.21B27,2013-10-13 14:27:00,
2013-10-13 10:29:00,58.1,48.0,30.47,SSE,156,5.0,20.0,69,0.00,,,0.00,WeatherCatV1.21B27,2013-10-13 14:29:00,
2013-10-13 10:30:00,58.1,48.4,30.47,ESE,107,6.0,20.0,70,0.00,,,0.00,WeatherCatV1.21B27,2013-10-13 14:30:00,
2013-10-13 10:31:00,58.1,48.4,30.47,SE,124,2.0,20.0,70,0.00,,,0.00,WeatherCatV1.21B27,2013-10-13 14:31:00,
2013-10-13 10:32:00,58.1,48.0,30.47,SE,133,5.0,15.0,69,0.00,,,0.00,WeatherCatV1.21B27,2013-10-13 14:32:00,
2013-10-13 10:33:00,58.1,48.0,30.47,SE,132,5.0,15.0,69,0.00,,,0.00,WeatherCatV1.21B27,2013-10-13 14:33:00,
2013-10-13 10:35:00,58.1,48.0,30.47,SE,136,7.0,11.0,69,0.00,,,0.00,WeatherCatV1.21B27,2013-10-13 14:35:00,
2013-10-13 10:36:00,58.0,48.3,30.47,ESE,115,4.0,8.0,70,0.00,,,0.00,WeatherCatV1.21B27,2013-10-13 14:36:00,
2013-10-13 10:38:00,58.0,49.0,30.47,SE,128,6.0,7.0,72,0.00,,,0.00,WeatherCatV1.21B27,2013-10-13 14:38:00,
2013-10-13 10:40:00,58.1,48.7,30.47,SSE,150,7.0,7.0,71,0.00,,,0.00,WeatherCatV1.21B27,2013-10-13 14:40:00,
2013-10-13 10:41:00,58.2,48.8,30.47,SSE,160,4.0,7.0,71,0.00,,,0.00,WeatherCatV1.21B27,2013-10-13 14:41:00,
2013-10-13 10:43:00,58.2,48.5,30.47,SSE,161,5.0,12.0,70,0.00,,,0.00,WeatherCatV1.21B27,2013-10-13 14:43:00,
2013-10-13 10:45:00,58.4,48.7,30.47,ESE,118,2.0,9.0,70,0.00,,,0.00,WeatherCatV1.21B27,2013-10-13 14:45:00,
2013-10-13 10:46:00,58.5,48.8,30.47,East,88,8.0,8.0,70,0.00,,,0.00,WeatherCatV1.21B27,2013-10-13 14:46:00,
2013-10-13 10:48:00,59.0,49.2,30.47,SSE,164,8.0,13.0,70,0.00,,,0.00,WeatherCatV1.21B27,2013-10-13 14:48:00,
2013-10-13 10:49:00,59.1,48.5,30.47,ESE,120,4.0,13.0,68,0.00,,,0.00,WeatherCatV1.21B27,2013-10-13 14:49:00,
2013-10-13 10:51:00,59.4,48.4,30.47,SE,124,8.0,12.0,67,0.00,,,0.00,WeatherCatV1.21B27,2013-10-13 14:51:00,
2013-10-13 10:52:00,59.4,48.4,30.47,SSE,153,6.0,9.0,67,0.00,,,0.00,WeatherCatV1.21B27,2013-10-13 14:52:00,
2013-10-13 10:53:00,59.4,48.4,30.47,ESE,116,7.0,12.0,67,0.00,,,0.00,WeatherCatV1.21B27,2013-10-13 14:53:00,
2013-10-13 10:54:00,59.3,47.9,30.47,South,173,6.0,16.0,66,0.00,,,0.00,WeatherCatV1.21B27,2013-10-13 14:54:00,
2013-10-13 10:56:00,59.2,48.6,30.47,SE,136,8.0,12.0,68,0.00,,,0.00,WeatherCatV1.21B27,2013-10-13 14:56:00,
2013-10-13 10:57:00,59.2,48.6,30.47,SSE,151,4.0,12.0,68,0.00,,,0.00,WeatherCatV1.21B27,2013-10-13 14:57:00,
2013-10-13 10:58:00,59.1,48.2,30.47,SE,126,2.0,9.0,67,0.00,,,0.00,WeatherCatV1.21B27,2013-10-13 14:58:00,
2013-10-13 10:59:00,59.0,48.5,30.47,SE,136,11.0,12.0,68,0.00,,,0.00,WeatherCatV1.21B27,2013-10-13 14:59:00,
2013-10-13 11:01:00,58.6,48.1,30.47,East,96,0.0,9.0,68,0.00,,,0.00,WeatherCatV1.21B27,2013-10-13 15:01:00,
2013-10-13 11:02:00,58.5,48.8,30.47,ESE,107,4.0,9.0,70,0.00,,,0.00,WeatherCatV1.21B27,2013-10-13 15:02:00,
2013-10-13 11:04:00,58.4,48.3,30.47,ESE,108,8.0,12.0,69,0.00,,,0.00,WeatherCatV1.21B27,2013-10-13 15:04:00,
2013-10-13 11:05:00,58.3,48.2,30.47,SE,130,6.0,14.0,69,0.00,,,0.00,WeatherCatV1.21B27,2013-10-13 15:05:00,
2013-10-13 11:06:00,58.1,48.4,30.47,SE,132,7.0,18.0,70,0.00,,,0.00,WeatherCatV1.21B27,2013-10-13 15:06:00,
2013-10-13 11:07:00,58.0,47.9,30.47,ESE,115,6.0,18.0,69,0.00,,,0.00,WeatherCatV1.21B27,2013-10-13 15:07:00,
2013-10-13 11:09:00,57.8,48.1,30.47,NE,36,10.0,14.0,70,0.00,,,0.00,WeatherCatV1.21B27,2013-10-13 15:09:00,
2013-10-13 11:10:00,57.8,48.1,30.47,East,85,8.0,14.0,70,0.00,,,0.00,WeatherCatV1.21B27,2013-10-13 15:10:00,
2013-10-13 11:12:00,57.7,48.0,30.47,SE,135,7.0,9.0,70,0.00,,,0.00,WeatherCatV1.21B27,2013-10-13 15:12:00,
2013-10-13 11:13:00,57.8,48.1,30.47,SSE,165,6.0,12.0,70,0.00,,,0.00,WeatherCatV1.21B27,2013-10-13 15:13:00,
2013-10-13 11:14:00,57.9,48.2,30.47,SE,146,4.0,8.0,70,0.00,,,0.00,WeatherCatV1.21B27,2013-10-13 15:14:00,
2013-10-13 11:15:00,58.0,48.3,30.47,ESE,110,5.0,9.0,70,0.00,,,0.00,WeatherCatV1.21B27,2013-10-13 15:15:00,
2013-10-13 11:17:00,58.2,48.1,30.47,ESE,103,6.0,8.0,69,0.00,,,0.00,WeatherCatV1.21B27,2013-10-13 15:17:00,
2013-10-13 11:18:00,58.3,48.2,30.47,South,169,6.0,13.0,69,0.00,,,0.00,WeatherCatV1.21B27,2013-10-13 15:18:00,
2013-10-13 11:20:00,58.5,48.4,30.47,SSE,154,11.0,14.0,69,0.00,,,0.00,WeatherCatV1.21B27,2013-10-13 15:20:00,
2013-10-13 11:22:00,58.5,48.0,30.47,SSE,150,4.0,9.0,68,0.00,,,0.00,WeatherCatV1.21B27,2013-10-13 15:22:00,
2013-10-13 11:23:00,58.7,48.5,30.47,South,180,6.0,11.0,69,0.00,,,0.00,WeatherCatV1.21B27,2013-10-13 15:23:00,
2013-10-13 11:24:00,58.7,48.5,30.47,SSE,162,11.0,11.0,69,0.00,,,0.00,WeatherCatV1.21B27,2013-10-13 15:24:00,
2013-10-13 11:25:00,58.7,47.4,30.47,ESE,119,12.0,12.0,66,0.00,,,0.00,WeatherCatV1.21B27,2013-10-13 15:25:00,
2013-10-13 11:27:00,58.6,48.1,30.47,SSE,153,7.0,10.0,68,0.00,,,0.00,WeatherCatV1.21B27,2013-10-13 15:27:00,
2013-10-13 11:28:00,58.6,48.1,30.46,SE,144,6.0,20.0,68,0.00,,,0.00,WeatherCatV1.21B27,2013-10-13 15:28:00,
2013-10-13 11:29:00,58.6,47.7,30.47,SE,126,11.0,20.0,67,0.00,,,0.00,WeatherCatV1.21B27,2013-10-13 15:29:00,
2013-10-13 11:30:00,58.6,47.7,30.47,SSE,148,7.0,15.0,67,0.00,,,0.00,WeatherCatV1.21B27,2013-10-13 15:30:00,
2013-10-13 11:32:00,58.6,47.7,30.47,SSE,163,7.0,13.0,67,0.00,,,0.00,WeatherCatV1.21B27,2013-10-13 15:32:00,
2013-10-13 11:33:00,58.5,47.2,30.47,ESE,118,11.0,13.0,66,0.00,,,0.00,WeatherCatV1.21B27,2013-10-13 15:33:00,
2013-10-13 11:34:00,58.5,47.6,30.47,SSE,168,4.0,13.0,67,0.00,,,0.00,WeatherCatV1.21B27,2013-10-13 15:34:00,
2013-10-13 11:35:00,58.5,48.0,30.47,SE,134,4.0,11.0,68,0.00,,,0.00,WeatherCatV1.21B27,2013-10-13 15:35:00,
2013-10-13 11:37:00,58.6,48.1,30.47,South,175,5.0,11.0,68,0.00,,,0.00,WeatherCatV1.21B27,2013-10-13 15:37:00,
2013-10-13 11:38:00,58.6,48.1,30.47,SSE,157,7.0,12.0,68,0.00,,,0.00,WeatherCatV1.21B27,2013-10-13 15:38:00,
2013-10-13 11:40:00,58.5,47.2,30.47,ESE,117,6.0,12.0,66,0.00,,,0.00,WeatherCatV1.21B27,2013-10-13 15:40:00,
2013-10-13 11:42:00,58.4,47.5,30.47,SSW,196,8.0,11.0,67,0.00,,,0.00,WeatherCatV1.21B27,2013-10-13 15:42:00,
2013-10-13 11:43:00,58.4,47.5,30.47,SSE,163,5.0,11.0,67,0.00,,,0.00,WeatherCatV1.21B27,2013-10-13 15:43:00,
2013-10-13 11:44:00,58.3,47.4,30.47,ESE,113,8.0,11.0,67,0.00,,,0.00,WeatherCatV1.21B27,2013-10-13 15:44:00,
2013-10-13 11:45:00,58.4,47.9,30.47,ESE,106,6.0,11.0,68,0.00,,,0.00,WeatherCatV1.21B27,2013-10-13 15:45:00,
2013-10-13 11:46:00,58.6,48.5,30.47,East,101,2.0,15.0,69,0.00,,,0.00,WeatherCatV1.21B27,2013-10-13 15:46:00,
2013-10-13 11:47:00,58.8,48.3,30.47,ESE,123,2.0,15.0,68,0.00,,,0.00,WeatherCatV1.21B27,2013-10-13 15:47:00,
2013-10-13 11:48:00,59.1,48.9,30.47,SSE,158,1.0,7.0,69,0.00,,,0.00,WeatherCatV1.21B27,2013-10-13 15:48:00,
2013-10-13 11:49:00,59.2,48.2,30.47,ESE,111,0.0,7.0,67,0.00,,,0.00,WeatherCatV1.21B27,2013-10-13 15:49:00,
2013-10-13 11:50:00,59.4,48.4,30.47,ENE,71,8.0,12.0,67,0.00,,,0.00,WeatherCatV1.21B27,2013-10-13 15:50:00,
2013-10-13 11:51:00,59.5,48.9,30.47,ESE,117,5.0,12.0,68,0.00,,,0.00,WeatherCatV1.21B27,2013-10-13 15:51:00,
2013-10-13 11:53:00,59.8,49.2,30.47,East,98,7.0,9.0,68,0.00,,,0.00,WeatherCatV1.21B27,2013-10-13 15:53:00,
2013-10-13 11:54:00,59.9,49.3,30.47,East,83,4.0,10.0,68,0.00,,,0.00,WeatherCatV1.21B27,2013-10-13 15:54:00,
2013-10-13 11:55:00,60.0,49.0,30.47,SSE,148,0.0,10.0,67,0.00,,,0.00,WeatherCatV1.21B27,2013-10-13 15:55:00,
2013-10-13 11:57:00,60.0,49.0,30.47,SSE,165,2.0,10.0,67,0.00,,,0.00,WeatherCatV1.21B27,2013-10-13 15:57:00,
2013-10-13 11:58:00,59.9,48.5,30.47,ESE,103,9.0,10.0,66,0.00,,,0.00,WeatherCatV1.21B27,2013-10-13 15:58:00,
2013-10-13 11:59:00,59.8,48.4,30.47,SSE,167,4.0,9.0,66,0.00,,,0.00,WeatherCatV1.21B27,2013-10-13 15:59:00,
2013-10-13 12:00:00,59.6,48.6,30.47,East,92,6.0,7.0,67,0.00,,,0.00,WeatherCatV1.21B27,2013-10-13 16:00:00,
2013-10-13 12:02:00,59.7,49.1,30.47,NE,55,3.0,11.0,68,0.00,,,0.00,WeatherCatV1.21B27,2013-10-13 16:02:00,
2013-10-13 12:03:00,59.7,48.7,30.47,ENE,77,0.0,11.0,67,0.00,,,0.00,WeatherCatV1.21B27,2013-10-13 16:03:00,
2013-10-13 12:04:00,59.8,48.8,30.46,SE,136,8.0,12.0,67,0.00,,,0.00,WeatherCatV1.21B27,2013-10-13 16:04:00,
2013-10-13 12:06:00,59.9,48.9,30.47,SE,144,6.0,11.0,67,0.00,,,0.00,WeatherCatV1.21B27,2013-10-13 16:06:00,
2013-10-13 12:08:00,59.7,48.7,30.47,East,98,7.0,12.0,67,0.00,,,0.00,WeatherCatV1.21B27,2013-10-13 16:08:00,
2013-10-13 12:09:00,59.5,48.9,30.46,NNE,17,4.0,12.0,68,0.00,,,0.00,WeatherCatV1.21B27,2013-10-13 16:09:00,
2013-10-13 12:10:00,59.5,49.3,30.46,NNE,13,4.0,12.0,69,0.00,,,0.00,WeatherCatV1.21B27,2013-10-13 16:10:00,
2013-10-13 12:11:00,59.7,49.9,30.46,NE,55,3.0,11.0,70,0.00,,,0.00,WeatherCatV1.21B27,2013-10-13 16:11:00,
2013-10-13 12:12:00,59.8,49.2,30.46,East,90,1.0,9.0,68,0.00,,,0.00,WeatherCatV1.21B27,2013-10-13 16:12:00,
2013-10-13 12:13:00,59.9,48.9,30.47,East,100,7.0,9.0,67,0.00,,,0.00,WeatherCatV1.21B27,2013-10-13 16:13:00,
2013-10-13 12:14:00,60.0,49.0,30.47,ENE,63,5.0,8.0,67,0.00,,,0.00,WeatherCatV1.21B27,2013-10-13 16:14:00,
2013-10-13 12:15:00,60.0,48.6,30.46,ESE,117,9.0,13.0,66,0.00,,,0.00,WeatherCatV1.21B27,2013-10-13 16:15:00,
2013-10-13 12:16:00,59.9,48.5,30.46,SE,136,7.0,13.0,66,0.00,,,0.00,WeatherCatV1.21B27,2013-10-13 16:16:00,
2013-10-13 12:17:00,59.8,47.6,30.46,ESE,121,7.0,13.0,64,0.00,,,0.00,WeatherCatV1.21B27,2013-10-13 16:17:00,
2013-10-13 12:18:00,59.6,47.8,30.46,SE,132,2.0,9.0,65,0.00,,,0.00,WeatherCatV1.21B27,2013-10-13 16:18:00,
2013-10-13 12:20:00,59.4,48.4,30.46,ESE,123,7.0,11.0,67,0.00,,,0.00,WeatherCatV1.21B27,2013-10-13 16:20:00,
2013-10-13 12:21:00,59.5,48.1,30.46,East,92,5.0,11.0,66,0.00,,,0.00,WeatherCatV1.21B27,2013-10-13 16:21:00,
2013-10-13 12:22:00,59.5,48.1,30.46,ENE,78,1.0,8.0,66,0.00,,,0.00,WeatherCatV1.21B27,2013-10-13 16:22:00,
2013-10-13 12:23:00,59.5,48.5,30.46,ESE,107,5.0,8.0,67,0.00,,,0.00,WeatherCatV1.21B27,2013-10-13 16:23:00,
2013-10-13 12:25:00,59.8,48.4,30.46,East,86,5.0,6.0,66,0.00,,,0.00,WeatherCatV1.21B27,2013-10-13 16:25:00,
2013-10-13 12:26:00,60.0,49.0,30.46,ESE,121,8.0,11.0,67,0.00,,,0.00,WeatherCatV1.21B27,2013-10-13 16:26:00,
2013-10-13 12:27:00,60.1,48.3,30.46,South,170,7.0,13.0,65,0.00,,,0.00,WeatherCatV1.21B27,2013-10-13 16:27:00,
2013-10-13 12:28:00,60.0,47.8,30.46,SE,139,4.0,13.0,64,0.00,,,0.00,WeatherCatV1.21B27,2013-10-13 16:28:00,
2013-10-13 12:29:00,60.0,47.8,30.46,SE,138,6.0,13.0,64,0.00,,,0.00,WeatherCatV1.21B27,2013-10-13 16:29:00,
2013-10-13 12:30:00,59.9,47.7,30.46,ESE,110,5.0,10.0,64,0.00,,,0.00,WeatherCatV1.21B27,2013-10-13 16:30:00,
2013-10-13 12:31:00,59.8,48.4,30.46,South,190,5.0,7.0,66,0.00,,,0.00,WeatherCatV1.21B27,2013-10-13 16:31:00,
2013-10-13 12:33:00,59.8,48.0,30.46,SSE,150,7.0,7.0,65,0.00,,,0.00,WeatherCatV1.21B27,2013-10-13 16:33:00,
2013-10-13 12:34:00,59.8,48.4,30.46,SSE,161,6.0,11.0,66,0.00,,,0.00,WeatherCatV1.21B27,2013-10-13 16:34:00,
2013-10-13 12:35:00,60.0,48.6,30.46,SSE,151,8.0,14.0,66,0.00,,,0.00,WeatherCatV1.21B27,2013-10-13 16:35:00,
2013-10-13 12:36:00,60.0,48.2,30.46,SE,146,4.0,14.0,65,0.00,,,0.00,WeatherCatV1.21B27,2013-10-13 16:36:00,
2013-10-13 12:38:00,59.8,48.0,30.46,SE,138,8.0,13.0,65,0.00,,,0.00,WeatherCatV1.21B27,2013-10-13 16:38:00,
2013-10-13 12:39:00,59.7,47.5,30.45,SE,130,8.0,13.0,64,0.00,,,0.00,WeatherCatV1.21B27,2013-10-13 16:39:00,
2013-10-13 12:41:00,59.6,48.2,30.45,SSE,165,1.0,7.0,66,0.00,,,0.00,WeatherCatV1.21B27,2013-10-13 16:41:00,
2013-10-13 12:43:00,60.0,49.0,30.45,SE,126,4.0,5.0,67,0.00,,,0.00,WeatherCatV1.21B27,2013-10-13 16:43:00,
2013-10-13 12:44:00,60.0,49.0,30.45,East,79,1.0,5.0,67,0.00,,,0.00,WeatherCatV1.21B27,2013-10-13 16:44:00,
2013-10-13 12:46:00,60.3,48.9,30.45,SE,134,12.0,12.0,66,0.00,,,0.00,WeatherCatV1.21B27,2013-10-13 16:46:00,
2013-10-13 12:48:00,60.2,48.0,30.45,ESE,103,6.0,13.0,64,0.00,,,0.00,WeatherCatV1.21B27,2013-10-13 16:48:00,
2013-10-13 12:49:00,60.2,48.0,30.45,SSE,152,7.0,13.0,64,0.00,,,0.00,WeatherCatV1.21B27,2013-10-13 16:49:00,
2013-10-13 12:51:00,59.8,48.0,30.45,SSE,167,5.0,10.0,65,0.00,,,0.00,WeatherCatV1.21B27,2013-10-13 16:51:00,
2013-10-13 12:54:00,59.4,48.0,30.45,SSE,161,0.0,5.0,66,0.00,,,0.00,WeatherCatV1.21B27,2013-10-13 16:54:00,
2013-10-13 12:55:00,59.4,48.0,30.45,SE,145,4.0,7.0,66,0.00,,,0.00,WeatherCatV1.21B27,2013-10-13 16:55:00,
2013-10-13 12:56:00,59.5,48.5,30.45,ESE,112,7.0,20.0,67,0.00,,,0.00,WeatherCatV1.21B27,2013-10-13 16:56:00,
2013-10-13 12:57:00,59.5,47.7,30.45,SE,128,7.0,20.0,65,0.00,,,0.00,WeatherCatV1.21B27,2013-10-13 16:57:00,
2013-10-13 12:59:00,59.5,48.1,30.45,East,96,1.0,12.0,66,0.00,,,0.00,WeatherCatV1.21B27,2013-10-13 16:59:00,
2013-10-13 13:01:00,59.7,48.3,30.45,East,84,5.0,8.0,66,0.00,,,0.00,WeatherCatV1.21B27,2013-10-13 17:01:00,
2013-10-13 13:02:00,59.8,48.4,30.45,ESE,108,2.0,9.0,66,0.00,,,0.00,WeatherCatV1.21B27,2013-10-13 17:02:00,
2013-10-13 13:04:00,60.0,48.2,30.45,SE,136,9.0,11.0,65,0.00,,,0.00,WeatherCatV1.21B27,2013-10-13 17:04:00,
2013-10-13 13:06:00,60.0,48.2,30.45,ESE,119,11.0,12.0,65,0.00,,,0.00,WeatherCatV1.21B27,2013-10-13 17:06:00,
2013-10-13 13:07:00,60.0,47.8,30.45,SE,144,8.0,12.0,64,0.00,,,0.00,WeatherCatV1.21B27,2013-10-13 17:07:00,
2013-10-13 13:09:00,60.2,48.4,30.45,East,95,7.0,7.0,65,0.00,,,0.00,WeatherCatV1.21B27,2013-10-13 17:09:00,
2013-10-13 13:11:00,60.4,48.6,30.45,SSE,155,1.0,13.0,65,0.00,,,0.00,WeatherCatV1.21B27,2013-10-13 17:11:00,
2013-10-13 13:12:00,60.4,48.6,30.45,South,175,7.0,10.0,65,0.00,,,0.00,WeatherCatV1.21B27,2013-10-13 17:12:00,
2013-10-13 13:13:00,60.4,47.7,30.45,ESE,111,9.0,13.0,63,0.00,,,0.00,WeatherCatV1.21B27,2013-10-13 17:13:00,
2013-10-13 13:14:00,60.4,48.2,30.45,SSE,153,5.0,13.0,64,0.00,,,0.00,WeatherCatV1.21B27,2013-10-13 17:14:00,
2013-10-13 13:16:00,60.2,48.0,30.45,ESE,107,5.0,13.0,64,0.00,,,0.00,WeatherCatV1.21B27,2013-10-13 17:16:00,
2013-10-13 13:17:00,60.2,48.0,30.45,SE,143,2.0,13.0,64,0.00,,,0.00,WeatherCatV1.21B27,2013-10-13 17:17:00,
2013-10-13 13:18:00,60.3,48.5,30.45,NE,39,2.0,6.0,65,0.00,,,0.00,WeatherCatV1.21B27,2013-10-13 17:18:00,
2013-10-13 13:19:00,60.5,49.1,30.45,NE,42,5.0,5.0,66,0.00,,,0.00,WeatherCatV1.21B27,2013-10-13 17:19:00,
2013-10-13 13:21:00,60.9,48.2,30.45,ENE,57,10.0,13.0,63,0.00,,,0.00,WeatherCatV1.21B27,2013-10-13 17:21:00,
2013-10-13 13:22:00,60.9,48.6,30.45,SE,136,6.0,13.0,64,0.00,,,0.00,WeatherCatV1.21B27,2013-10-13 17:22:00,
2013-10-13 13:23:00,60.8,48.1,30.45,SE,146,4.0,8.0,63,0.00,,,0.00,WeatherCatV1.21B27,2013-10-13 17:23:00,
2013-10-13 13:24:00,60.5,48.3,30.45,SSE,149,7.0,8.0,64,0.00,,,0.00,WeatherCatV1.21B27,2013-10-13 17:24:00,
2013-10-13 13:25:00,60.1,47.5,30.45,SE,145,6.0,11.0,63,0.00,,,0.00,WeatherCatV1.21B27,2013-10-13 17:25:00,
2013-10-13 13:27:00,59.8,47.6,30.45,East,100,4.0,11.0,64,0.00,,,0.00,WeatherCatV1.21B27,2013-10-13 17:27:00,
2013-10-13 13:28:00,59.6,47.8,30.45,NE,56,4.0,9.0,65,0.00,,,0.00,WeatherCatV1.21B27,2013-10-13 17:28:00,
2013-10-13 13:29:00,59.5,47.7,30.45,ESE,110,6.0,9.0,65,0.00,,,0.00,WeatherCatV1.21B27,2013-10-13 17:29:00,
2013-10-13 13:30:00,59.4,47.6,30.45,East,96,5.0,11.0,65,0.00,,,0.00,WeatherCatV1.21B27,2013-10-13 17:30:00,
2013-10-13 13:32:00,59.3,47.1,30.45,SE,131,0.0,7.0,64,0.00,,,0.00,WeatherCatV1.21B27,2013-10-13 17:32:00,
2013-10-13 13:33:00,59.4,48.4,30.45,NE,34,3.0,4.0,67,0.00,,,0.00,WeatherCatV1.21B27,2013-10-13 17:33:00,
2013-10-13 13:35:00,59.6,48.2,30.45,ESE,107,2.0,8.0,66,0.00,,,0.00,WeatherCatV1.21B27,2013-10-13 17:35:00,
2013-10-13 13:36:00,59.5,47.7,30.45,NE,54,2.0,11.0,65,0.00,,,0.00,WeatherCatV1.21B27,2013-10-13 17:36:00,
2013-10-13 13:37:00,59.5,48.5,30.45,ENE,61,7.0,12.0,67,0.00,,,0.00,WeatherCatV1.21B27,2013-10-13 17:37:00,
2013-10-13 13:39:00,59.6,48.2,30.45,SSE,160,5.0,12.0,66,0.00,,,0.00,WeatherCatV1.21B27,2013-10-13 17:39:00,
2013-10-13 13:40:00,59.5,48.5,30.45,ESE,108,2.0,9.0,67,0.00,,,0.00,WeatherCatV1.21B27,2013-10-13 17:40:00,
2013-10-13 13:42:00,59.6,48.6,30.45,ESE,115,4.0,4.0,67,0.00,,,0.00,WeatherCatV1.21B27,2013-10-13 17:42:00,
2013-10-13 13:43:00,59.6,49.0,30.45,SSE,154,4.0,5.0,68,0.00,,,0.00,WeatherCatV1.21B27,2013-10-13 17:43:00,
2013-10-13 13:44:00,59.6,49.0,30.45,ESE,113,8.0,11.0,68,0.00,,,0.00,WeatherCatV1.21B27,2013-10-13 17:44:00,
2013-10-13 13:45:00,59.6,48.2,30.45,East,90,7.0,11.0,66,0.00,,,0.00,WeatherCatV1.21B27,2013-10-13 17:45:00,
2013-10-13 13:48:00,59.3,47.5,30.45,SSE,157,1.0,11.0,65,0.00,,,0.00,WeatherCatV1.21B27,2013-10-13 17:48:00,
2013-10-13 13:49:00,59.3,47.9,30.45,ESE,123,1.0,9.0,66,0.00,,,0.00,WeatherCatV1.21B27,2013-10-13 17:49:00,
2013-10-13 13:50:00,59.3,48.3,30.45,ESE,114,7.0,7.0,67,0.00,,,0.00,WeatherCatV1.21B27,2013-10-13 17:50:00,
2013-10-13 13:53:00,59.1,48.2,30.45,SSE,159,6.0,9.0,67,0.00,,,0.00,WeatherCatV1.21B27,2013-10-13 17:53:00,
2013-10-13 13:54:00,59.0,48.1,30.45,SE,136,2.0,12.0,67,0.00,,,0.00,WeatherCatV1.21B27,2013-10-13 17:54:00,
2013-10-13 13:55:00,58.9,48.0,30.45,ESE,105,4.0,12.0,67,0.00,,,0.00,WeatherCatV1.21B27,2013-10-13 17:55:00,
2013-10-13 13:58:00,58.7,48.2,30.45,SE,134,0.0,6.0,68,0.00,,,0.00,WeatherCatV1.21B27,2013-10-13 17:58:00,
2013-10-13 13:59:00,58.7,48.5,30.45,SE,142,4.0,7.0,69,0.00,,,0.00,WeatherCatV1.21B27,2013-10-13 17:59:00,
2013-10-13 14:00:00,58.7,48.5,30.45,SE,142,1.0,7.0,69,0.00,,,0.00,WeatherCatV1.21B27,2013-10-13 18:00:00,
2013-10-13 14:03:00,58.7,47.8,30.45,East,100,5.0,10.0,67,0.00,,,0.00,WeatherCatV1.21B27,2013-10-13 18:03:00,
2013-10-13 14:05:00,58.5,48.0,30.45,SE,136,6.0,13.0,68,0.00,,,0.00,WeatherCatV1.21B27,2013-10-13 18:05:00,
2013-10-13 14:06:00,58.5,48.4,30.45,ESE,104,6.0,13.0,69,0.00,,,0.00,WeatherCatV1.21B27,2013-10-13 18:06:00,
2013-10-13 14:08:00,58.3,47.8,30.45,East,96,6.0,8.0,68,0.00,,,0.00,WeatherCatV1.21B27,2013-10-13 18:08:00,
2013-10-13 14:10:00,58.2,47.3,30.45,ESE,113,5.0,12.0,67,0.00,,,0.00,WeatherCatV1.21B27,2013-10-13 18:10:00,
2013-10-13 14:11:00,58.1,46.8,30.45,SSE,148,2.0,11.0,66,0.00,,,0.00,WeatherCatV1.21B27,2013-10-13 18:11:00,
2013-10-13 14:13:00,58.0,47.1,30.45,SE,139,0.0,10.0,67,0.00,,,0.00,WeatherCatV1.21B27,2013-10-13 18:13:00,
2013-10-13 14:15:00,58.1,47.6,30.45,SE,146,4.0,7.0,68,0.00,,,0.00,WeatherCatV1.21B27,2013-10-13 18:15:00,
2013-10-13 14:16:00,58.2,47.3,30.45,NE,38,1.0,7.0,67,0.00,,,0.00,WeatherCatV1.21B27,2013-10-13 18:16:00,
2013-10-13 14:18:00,58.3,47.8,30.45,ESE,123,4.0,8.0,68,0.00,,,0.00,WeatherCatV1.21B27,2013-10-13 18:18:00,
2013-10-13 14:19:00,58.4,47.5,30.45,ESE,115,9.0,11.0,67,0.00,,,0.00,WeatherCatV1.21B27,2013-10-13 18:19:00,
2013-10-13 14:20:00,58.4,47.5,30.45,ESE,103,2.0,12.0,67,0.00,,,0.00,WeatherCatV1.21B27,2013-10-13 18:20:00,
2013-10-13 14:21:00,58.4,47.5,30.45,NE,56,4.0,12.0,67,0.00,,,0.00,WeatherCatV1.21B27,2013-10-13 18:21:00,
2013-10-13 14:24:00,58.5,47.6,30.45,East,85,8.0,8.0,67,0.00,,,0.00,WeatherCatV1.21B27,2013-10-13 18:24:00,
2013-10-13 14:26:00,58.6,48.1,30.45,ESE,109,9.0,9.0,68,0.00,,,0.00,WeatherCatV1.21B27,2013-10-13 18:26:00,
2013-10-13 14:27:00,58.6,47.7,30.45,ESE,113,2.0,9.0,67,0.00,,,0.00,WeatherCatV1.21B27,2013-10-13 18:27:00,
2013-10-13 14:29:00,58.5,47.6,30.45,SE,130,6.0,11.0,67,0.00,,,0.00,WeatherCatV1.21B27,2013-10-13 18:29:00,
2013-10-13 14:30:00,58.4,47.9,30.45,SE,142,6.0,8.0,68,0.00,,,0.00,WeatherCatV1.21B27,2013-10-13 18:30:00,
2013-10-13 14:31:00,58.3,47.8,30.45,ESE,119,4.0,6.0,68,0.00,,,0.00,WeatherCatV1.21B27,2013-10-13 18:31:00,
2013-10-13 14:32:00,58.3,48.2,30.45,East,97,4.0,7.0,69,0.00,,,0.00,WeatherCatV1.21B27,2013-10-13 18:32:00,
2013-10-13 14:34:00,58.2,47.7,30.45,NE,53,4.0,8.0,68,0.00,,,0.00,WeatherCatV1.21B27,2013-10-13 18:34:00,
2013-10-13 14:36:00,58.2,48.1,30.45,SE,139,2.0,6.0,69,0.00,,,0.00,WeatherCatV1.21B27,2013-10-13 18:36:00,
2013-10-13 14:37:00,58.2,48.1,30.45,SSE,153,6.0,6.0,69,0.00,,,0.00,WeatherCatV1.21B27,2013-10-13 18:37:00,
2013-10-13 14:39:00,58.2,47.7,30.45,SE,144,4.0,9.0,68,0.00,,,0.00,WeatherCatV1.21B27,2013-10-13 18:39:00,
2013-10-13 14:41:00,58.1,47.6,30.45,SE,138,7.0,9.0,68,0.00,,,0.00,WeatherCatV1.21B27,2013-10-13 18:41:00,
2013-10-13 14:42:00,58.0,47.5,30.45,SSE,151,4.0,7.0,68,0.00,,,0.00,WeatherCatV1.21B27,2013-10-13 18:42:00,
2013-10-13 14:44:00,57.8,47.3,30.45,SE,133,2.0,6.0,68,0.00,,,0.00,WeatherCatV1.21B27,2013-10-13 18:44:00,
2013-10-13 14:46:00,57.9,47.8,30.45,SE,141,2.0,11.0,69,0.00,,,0.00,WeatherCatV1.21B27,2013-10-13 18:46:00,
2013-10-13 14:47:00,57.9,47.8,30.45,SE,141,0.0,11.0,69,0.00,,,0.00,WeatherCatV1.21B27,2013-10-13 18:47:00,
2013-10-13 14:48:00,58.0,48.3,30.45,ESE,108,5.0,5.0,70,0.00,,,0.00,WeatherCatV1.21B27,2013-10-13 18:48:00,
2013-10-13 14:49:00,58.0,47.9,30.45,East,80,3.0,8.0,69,0.00,,,0.00,WeatherCatV1.21B27,2013-10-13 18:49:00,
2013-10-13 14:52:00,58.0,47.5,30.45,East,91,0.0,9.0,68,0.00,,,0.00,WeatherCatV1.21B27,2013-10-13 18:52:00,
2013-10-13 14:53:00,57.9,47.4,30.45,NE,38,4.0,7.0,68,0.00,,,0.00,WeatherCatV1.21B27,2013-10-13 18:53:00,
2013-10-13 14:55:00,57.9,47.8,30.45,ENE,78,3.0,11.0,69,0.00,,,0.00,WeatherCatV1.21B27,2013-10-13 18:55:00,
2013-10-13 14:57:00,58.0,47.5,30.45,NE,51,6.0,6.0,68,0.00,,,0.00,WeatherCatV1.21B27,2013-10-13 18:57:00,
2013-10-13 14:58:00,58.0,47.5,30.45,ENE,61,2.0,7.0,68,0.00,,,0.00,WeatherCatV1.21B27,2013-10-13 18:58:00,
2013-10-13 15:00:00,58.0,47.5,30.45,ESE,111,7.0,13.0,68,0.00,,,0.00,WeatherCatV1.21B27,2013-10-13 19:00:00,
2013-10-13 15:02:00,58.0,47.5,30.45,ENE,69,1.0,5.0,68,0.00,,,0.00,WeatherCatV1.21B27,2013-10-13 19:02:00,
2013-10-13 15:03:00,58.0,47.5,30.45,East,96,5.0,7.0,68,0.00,,,0.00,WeatherCatV1.21B27,2013-10-13 19:03:00,
2013-10-13 15:05:00,58.0,47.5,30.45,East,84,3.0,7.0,68,0.00,,,0.00,WeatherCatV1.21B27,2013-10-13 19:05:00,
2013-10-13 15:07:00,58.0,47.1,30.45,ENE,74,2.0,8.0,67,0.00,,,0.00,WeatherCatV1.21B27,2013-10-13 19:07:00,
2013-10-13 15:08:00,58.0,47.1,30.45,NNE,31,4.0,8.0,67,0.00,,,0.00,WeatherCatV1.21B27,2013-10-13 19:08:00,
2013-10-13 15:10:00,58.0,47.1,30.45,SSE,155,4.0,5.0,67,0.00,,,0.00,WeatherCatV1.21B27,2013-10-13 19:10:00,
2013-10-13 15:12:00,57.9,47.0,30.45,SSE,157,4.0,7.0,67,0.00,,,0.00,WeatherCatV1.21B27,2013-10-13 19:12:00,
2013-10-13 15:13:00,57.9,47.0,30.45,South,169,2.0,7.0,67,0.00,,,0.00,WeatherCatV1.21B27,2013-10-13 19:13:00,
2013-10-13 15:15:00,57.9,47.4,30.44,ESE,119,0.0,9.0,68,0.00,,,0.00,WeatherCatV1.21B27,2013-10-13 19:15:00,
2013-10-13 15:17:00,58.1,48.0,30.44,ENE,67,4.0,7.0,69,0.00,,,0.00,WeatherCatV1.21B27,2013-10-13 19:17:00,
2013-10-13 15:18:00,58.1,48.0,30.44,ESE,102,5.0,8.0,69,0.00,,,0.00,WeatherCatV1.21B27,2013-10-13 19:18:00,
2013-10-13 15:19:00,58.2,47.7,30.44,ESE,103,2.0,8.0,68,0.00,,,0.00,WeatherCatV1.21B27,2013-10-13 19:19:00,
2013-10-13 15:20:00,58.3,47.8,30.45,NE,49,1.0,8.0,68,0.00,,,0.00,WeatherCatV1.21B27,2013-10-13 19:20:00,
2013-10-13 15:22:00,58.3,47.8,30.44,ENE,65,8.0,10.0,68,0.00,,,0.00,WeatherCatV1.21B27,2013-10-13 19:22:00,
2013-10-13 15:23:00,58.3,47.8,30.45,East,86,2.0,10.0,68,0.00,,,0.00,WeatherCatV1.21B27,2013-10-13 19:23:00,
2013-10-13 15:24:00,58.3,47.4,30.45,ENE,71,3.0,10.0,67,0.00,,,0.00,WeatherCatV1.21B27,2013-10-13 19:24:00,
2013-10-13 15:25:00,58.3,47.4,30.44,ESE,110,4.0,7.0,67,0.00,,,0.00,WeatherCatV1.21B27,2013-10-13 19:25:00,
2013-10-13 15:28:00,58.1,46.8,30.44,East,84,3.0,5.0,66,0.00,,,0.00,WeatherCatV1.21B27,2013-10-13 19:28:00,
2013-10-13 15:29:00,58.1,47.2,30.44,ESE,115,1.0,7.0,67,0.00,,,0.00,WeatherCatV1.21B27,2013-10-13 19:29:00,
2013-10-13 15:31:00,58.0,47.1,30.44,ESE,115,0.0,8.0,67,0.00,,,0.00,WeatherCatV1.21B27,2013-10-13 19:31:00,
2013-10-13 15:33:00,57.8,46.5,30.44,ESE,122,4.0,8.0,66,0.00,,,0.00,WeatherCatV1.21B27,2013-10-13 19:33:00,
2013-10-13 15:34:00,57.8,46.9,30.44,NE,54,0.0,6.0,67,0.00,,,0.00,WeatherCatV1.21B27,2013-10-13 19:34:00,
2013-10-13 15:35:00,57.7,47.2,30.44,SE,132,1.0,7.0,68,0.00,,,0.00,WeatherCatV1.21B27,2013-10-13 19:35:00,
2013-10-13 15:36:00,57.8,47.3,30.44,SE,130,8.0,9.0,68,0.00,,,0.00,WeatherCatV1.21B27,2013-10-13 19:36:00,
2013-10-13 15:38:00,57.8,46.9,30.44,SSE,155,4.0,5.0,67,0.00,,,0.00,WeatherCatV1.21B27,2013-10-13 19:38:00,
2013-10-13 15:39:00,57.7,46.8,30.44,ESE,105,2.0,13.0,67,0.00,,,0.00,WeatherCatV1.21B27,2013-10-13 19:39:00,
2013-10-13 15:40:00,57.6,46.3,30.44,SE,133,2.0,13.0,66,0.00,,,0.00,WeatherCatV1.21B27,2013-10-13 19:40:00,
2013-10-13 15:41:00,57.6,46.7,30.44,SE,129,2.0,9.0,67,0.00,,,0.00,WeatherCatV1.21B27,2013-10-13 19:41:00,
2013-10-13 15:43:00,57.4,46.5,30.44,SSE,164,5.0,8.0,67,0.00,,,0.00,WeatherCatV1.21B27,2013-10-13 19:43:00,
2013-10-13 15:44:00,57.3,46.0,30.44,SE,130,6.0,8.0,66,0.00,,,0.00,WeatherCatV1.21B27,2013-10-13 19:44:00,
2013-10-13 15:45:00,57.2,45.9,30.44,ENE,59,6.0,8.0,66,0.00,,,0.00,WeatherCatV1.21B27,2013-10-13 19:45:00,
2013-10-13 15:46:00,57.3,46.4,30.44,SE,139,5.0,9.0,67,0.00,,,0.00,WeatherCatV1.21B27,2013-10-13 19:46:00,
2013-10-13 15:48:00,57.4,46.1,30.44,ESE,123,7.0,10.0,66,0.00,,,0.00,WeatherCatV1.21B27,2013-10-13 19:48:00,
2013-10-13 15:50:00,57.6,46.3,30.44,ESE,121,5.0,11.0,66,0.00,,,0.00,WeatherCatV1.21B27,2013-10-13 19:50:00,
2013-10-13 15:51:00,57.8,46.5,30.44,ESE,113,8.0,8.0,66,0.00,,,0.00,WeatherCatV1.21B27,2013-10-13 19:51:00,
2013-10-13 15:53:00,58.2,46.9,30.44,SE,138,5.0,8.0,66,0.00,,,0.00,WeatherCatV1.21B27,2013-10-13 19:53:00,
2013-10-13 15:54:00,58.2,46.9,30.44,SE,138,1.0,8.0,66,0.00,,,0.00,WeatherCatV1.21B27,2013-10-13 19:54:00,
2013-10-13 15:55:00,58.3,46.6,30.44,SSE,159,6.0,11.0,65,0.00,,,0.00,WeatherCatV1.21B27,2013-10-13 19:55:00,
2013-10-13 15:57:00,58.1,46.4,30.44,SE,138,5.0,12.0,65,0.00,,,0.00,WeatherCatV1.21B27,2013-10-13 19:57:00,
2013-10-13 15:58:00,58.0,47.1,30.44,SE,125,6.0,10.0,67,0.00,,,0.00,WeatherCatV1.21B27,2013-10-13 19:58:00,
2013-10-13 15:59:00,58.0,47.1,30.44,ESE,110,6.0,11.0,67,0.00,,,0.00,WeatherCatV1.21B27,2013-10-13 19:59:00,
2013-10-13 16:01:00,57.8,46.5,30.44,ESE,103,4.0,9.0,66,0.00,,,0.00,WeatherCatV1.21B27,2013-10-13 20:01:00,
2013-10-13 16:02:00,57.8,46.9,30.44,South,173,1.0,4.0,67,0.00,,,0.00,WeatherCatV1.21B27,2013-10-13 20:02:00,
2013-10-13 16:03:00,57.7,47.2,30.44,East,87,2.0,4.0,68,0.00,,,0.00,WeatherCatV1.21B27,2013-10-13 20:03:00,
2013-10-13 16:04:00,57.7,46.8,30.44,East,87,0.0,3.0,67,0.00,,,0.00,WeatherCatV1.21B27,2013-10-13 20:04:00,
2013-10-13 16:05:00,57.7,46.8,30.44,East,81,1.0,3.0,67,0.00,,,0.00,WeatherCatV1.21B27,2013-10-13 20:05:00,
2013-10-13 16:06:00,57.8,46.9,30.44,ESE,123,2.0,4.0,67,0.00,,,0.00,WeatherCatV1.21B27,2013-10-13 20:06:00,
2013-10-13 16:07:00,57.9,47.4,30.44,East,98,1.0,4.0,68,0.00,,,0.00,WeatherCatV1.21B27,2013-10-13 20:07:00,
2013-10-13 16:08:00,58.0,47.9,30.44,ESE,117,2.0,4.0,69,0.00,,,0.00,WeatherCatV1.21B27,2013-10-13 20:08:00,
2013-10-13 16:09:00,58.2,48.1,30.44,SE,134,7.0,7.0,69,0.00,,,0.00,WeatherCatV1.21B27,2013-10-13 20:09:00,
2013-10-13 16:10:00,58.4,47.9,30.44,SE,138,9.0,13.0,68,0.00,,,0.00,WeatherCatV1.21B27,2013-10-13 20:10:00,
2013-10-13 16:12:00,58.4,47.5,30.44,SE,144,2.0,4.0,67,0.00,,,0.00,WeatherCatV1.21B27,2013-10-13 20:12:00,
2013-10-13 16:13:00,58.3,47.0,30.44,SE,124,8.0,12.0,66,0.00,,,0.00,WeatherCatV1.21B27,2013-10-13 20:13:00,
2013-10-13 16:14:00,58.1,46.8,30.44,SE,140,0.0,12.0,66,0.00,,,0.00,WeatherCatV1.21B27,2013-10-13 20:14:00,
2013-10-13 16:15:00,57.9,47.0,30.44,SE,128,1.0,10.0,67,0.00,,,0.00,WeatherCatV1.21B27,2013-10-13 20:15:00,
2013-10-13 16:17:00,57.7,47.6,30.44,East,99,4.0,4.0,69,0.00,,,0.00,WeatherCatV1.21B27,2013-10-13 20:17:00,
2013-10-13 16:18:00,57.7,47.6,30.44,ESE,103,4.0,11.0,69,0.00,,,0.00,WeatherCatV1.21B27,2013-10-13 20:18:00,
2013-10-13 16:19:00,57.6,47.1,30.44,ESE,110,6.0,11.0,68,0.00,,,0.00,WeatherCatV1.21B27,2013-10-13 20:19:00,
2013-10-13 16:20:00,57.5,46.6,30.44,SE,139,1.0,8.0,67,0.00,,,0.00,WeatherCatV1.21B27,2013-10-13 20:20:00,
2013-10-13 16:22:00,57.3,46.4,30.44,ESE,111,6.0,8.0,67,0.00,,,0.00,WeatherCatV1.21B27,2013-10-13 20:22:00,
2013-10-13 16:23:00,57.2,46.3,30.44,SE,146,1.0,8.0,67,0.00,,,0.00,WeatherCatV1.21B27,2013-10-13 20:23:00,
2013-10-13 16:24:00,57.1,46.6,30.44,SSE,148,1.0,8.0,68,0.00,,,0.00,WeatherCatV1.21B27,2013-10-13 20:24:00,
2013-10-13 16:25:00,57.0,46.5,30.44,SSE,152,1.0,6.0,68,0.00,,,0.00,WeatherCatV1.21B27,2013-10-13 20:25:00,
2013-10-13 16:27:00,56.8,46.7,30.44,SSE,150,2.0,6.0,69,0.00,,,0.00,WeatherCatV1.21B27,2013-10-13 20:27:00,
2013-10-13 16:29:00,56.8,47.1,30.44,South,169,5.0,8.0,70,0.00,,,0.00,WeatherCatV1.21B27,2013-10-13 20:29:00,
2013-10-13 16:30:00,56.6,46.5,30.44,SSE,157,5.0,6.0,69,0.00,,,0.00,WeatherCatV1.21B27,2013-10-13 20:30:00,
2013-10-13 16:32:00,56.5,46.1,30.44,SSE,148,2.0,6.0,68,0.00,,,0.00,WeatherCatV1.21B27,2013-10-13 20:32:00,
2013-10-13 16:33:00,56.5,46.1,30.44,SSE,148,0.0,6.0,68,0.00,,,0.00,WeatherCatV1.21B27,2013-10-13 20:33:00,
2013-10-13 16:34:00,56.4,46.4,30.44,South,169,2.0,7.0,69,0.00,,,0.00,WeatherCatV1.21B27,2013-10-13 20:34:00,
2013-10-13 16:35:00,56.4,46.4,30.44,South,169,4.0,7.0,69,0.00,,,0.00,WeatherCatV1.21B27,2013-10-13 20:35:00,
2013-10-13 16:38:00,56.4,46.7,30.44,ESE,121,0.0,5.0,70,0.00,,,0.00,WeatherCatV1.21B27,2013-10-13 20:38:00,
2013-10-13 16:39:00,56.4,46.7,30.44,ESE,114,4.0,5.0,70,0.00,,,0.00,WeatherCatV1.21B27,2013-10-13 20:39:00,
2013-10-13 16:40:00,56.4,46.7,30.44,SE,134,4.0,6.0,70,0.00,,,0.00,WeatherCatV1.21B27,2013-10-13 20:40:00,
2013-10-13 16:41:00,56.4,46.7,30.44,East,85,0.0,6.0,70,0.00,,,0.00,WeatherCatV1.21B27,2013-10-13 20:41:00,
2013-10-13 16:43:00,56.3,46.6,30.44,ESE,103,1.0,2.0,70,0.00,,,0.00,WeatherCatV1.21B27,2013-10-13 20:43:00,
2013-10-13 16:44:00,56.3,46.6,30.44,ESE,105,6.0,6.0,70,0.00,,,0.00,WeatherCatV1.21B27,2013-10-13 20:44:00,
2013-10-13 16:45:00,56.3,46.6,30.44,ESE,116,4.0,7.0,70,0.00,,,0.00,WeatherCatV1.21B27,2013-10-13 20:45:00,
2013-10-13 16:46:00,56.2,46.5,30.44,East,82,1.0,4.0,70,0.00,,,0.00,WeatherCatV1.21B27,2013-10-13 20:46:00,
2013-10-13 16:48:00,56.2,46.5,30.44,SE,134,2.0,5.0,70,0.00,,,0.00,WeatherCatV1.21B27,2013-10-13 20:48:00,
2013-10-13 16:49:00,56.2,46.5,30.44,ESE,123,2.0,5.0,70,0.00,,,0.00,WeatherCatV1.21B27,2013-10-13 20:49:00,
2013-10-13 16:50:00,56.1,46.1,30.44,ESE,123,5.0,5.0,69,0.00,,,0.00,WeatherCatV1.21B27,2013-10-13 20:50:00,
2013-10-13 16:52:00,56.0,46.3,30.44,ESE,119,0.0,4.0,70,0.00,,,0.00,WeatherCatV1.21B27,2013-10-13 20:52:00,
2013-10-13 16:53:00,56.0,46.3,30.44,ENE,74,2.0,4.0,70,0.00,,,0.00,WeatherCatV1.21B27,2013-10-13 20:53:00,
2013-10-13 16:55:00,56.0,46.3,30.44,ESE,103,4.0,6.0,70,0.00,,,0.00,WeatherCatV1.21B27,2013-10-13 20:55:00,
2013-10-13 16:58:00,56.0,46.7,30.44,SE,140,0.0,0.0,71,0.00,,,0.00,WeatherCatV1.21B27,2013-10-13 20:58:00,
2013-10-13 17:00:00,56.0,46.7,30.44,ESE,109,5.0,6.0,71,0.00,,,0.00,WeatherCatV1.21B27,2013-10-13 21:00:00,
2013-10-13 17:01:00,56.0,46.3,30.44,ESE,121,2.0,6.0,70,0.00,,,0.00,WeatherCatV1.21B27,2013-10-13 21:01:00,
2013-10-13 17:03:00,55.9,46.3,30.44,ESE,122,4.0,4.0,70,0.00,,,0.00,WeatherCatV1.21B27,2013-10-13 21:03:00,
2013-10-13 17:05:00,55.9,46.3,30.44,ESE,117,4.0,7.0,70,0.00,,,0.00,WeatherCatV1.21B27,2013-10-13 21:05:00,
2013-10-13 17:06:00,55.8,45.8,30.44,SSE,157,6.0,9.0,69,0.00,,,0.00,WeatherCatV1.21B27,2013-10-13 21:06:00,
2013-10-13 17:08:00,55.7,46.1,30.44,ESE,121,1.0,6.0,70,0.00,,,0.00,WeatherCatV1.21B27,2013-10-13 21:08:00,
2013-10-13 17:10:00,55.7,46.1,30.44,ESE,114,5.0,6.0,70,0.00,,,0.00,WeatherCatV1.21B27,2013-10-13 21:10:00,
2013-10-13 17:11:00,55.7,46.1,30.44,South,185,2.0,6.0,70,0.00,,,0.00,WeatherCatV1.21B27,2013-10-13 21:11:00,
2013-10-13 17:13:00,55.7,46.1,30.44,SSE,165,5.0,7.0,70,0.00,,,0.00,WeatherCatV1.21B27,2013-10-13 21:13:00,
2013-10-13 17:15:00,55.7,45.7,30.44,SSE,148,5.0,8.0,69,0.00,,,0.00,WeatherCatV1.21B27,2013-10-13 21:15:00,
2013-10-13 17:17:00,55.8,46.2,30.44,SSE,160,2.0,5.0,70,0.00,,,0.00,WeatherCatV1.21B27,2013-10-13 21:17:00,
2013-10-13 17:18:00,55.9,46.3,30.44,SE,138,4.0,6.0,70,0.00,,,0.00,WeatherCatV1.21B27,2013-10-13 21:18:00,
2013-10-13 17:19:00,55.9,46.3,30.44,SE,138,0.0,6.0,70,0.00,,,0.00,WeatherCatV1.21B27,2013-10-13 21:19:00,
2013-10-13 17:20:00,55.9,46.3,30.44,East,97,1.0,2.0,70,0.00,,,0.00,WeatherCatV1.21B27,2013-10-13 21:20:00,
2013-10-13 17:21:00,55.9,46.3,30.44,East,97,0.0,2.0,70,0.00,,,0.00,WeatherCatV1.21B27,2013-10-13 21:21:00,
2013-10-13 17:22:00,56.0,46.7,30.44,East,97,4.0,4.0,71,0.00,,,0.00,WeatherCatV1.21B27,2013-10-13 21:22:00,
2013-10-13 17:23:00,56.0,46.7,30.44,East,93,1.0,4.0,71,0.00,,,0.00,WeatherCatV1.21B27,2013-10-13 21:23:00,
2013-10-13 17:24:00,56.0,46.3,30.44,ESE,108,0.0,5.0,70,0.00,,,0.00,WeatherCatV1.21B27,2013-10-13 21:24:00,
2013-10-13 17:25:00,56.0,46.3,30.44,East,100,0.0,6.0,70,0.00,,,0.00,WeatherCatV1.21B27,2013-10-13 21:25:00,
2013-10-13 17:26:00,56.0,46.7,30.44,East,100,0.0,6.0,71,0.00,,,0.00,WeatherCatV1.21B27,2013-10-13 21:26:00,
2013-10-13 17:27:00,55.9,46.6,30.43,East,86,2.0,3.0,71,0.00,,,0.00,WeatherCatV1.21B27,2013-10-13 21:27:00,
2013-10-13 17:29:00,55.8,46.5,30.43,ESE,105,2.0,5.0,71,0.00,,,0.00,WeatherCatV1.21B27,2013-10-13 21:29:00,
2013-10-13 17:30:00,55.7,46.4,30.43,ESE,105,0.0,4.0,71,0.00,,,0.00,WeatherCatV1.21B27,2013-10-13 21:30:00,
2013-10-13 17:32:00,55.5,46.2,30.44,ESE,106,4.0,5.0,71,0.00,,,0.00,WeatherCatV1.21B27,2013-10-13 21:32:00,
2013-10-13 17:34:00,55.4,46.5,30.44,ESE,103,4.0,5.0,72,0.00,,,0.00,WeatherCatV1.21B27,2013-10-13 21:34:00,
2013-10-13 17:35:00,55.3,46.1,30.44,ESE,104,0.0,6.0,71,0.00,,,0.00,WeatherCatV1.21B27,2013-10-13 21:35:00,
2013-10-13 17:37:00,55.2,46.3,30.44,ESE,104,0.0,1.0,72,0.00,,,0.00,WeatherCatV1.21B27,2013-10-13 21:37:00,
2013-10-13 17:38:00,55.1,46.6,30.44,ESE,104,0.0,1.0,73,0.00,,,0.00,WeatherCatV1.21B27,2013-10-13 21:38:00,
2013-10-13 17:39:00,55.1,46.6,30.43,ESE,104,0.0,1.0,73,0.00,,,0.00,WeatherCatV1.21B27,2013-10-13 21:39:00,
2013-10-13 17:40:00,55.1,46.6,30.44,ESE,104,0.0,0.0,73,0.00,,,0.00,WeatherCatV1.21B27,2013-10-13 21:40:00,
2013-10-13 17:42:00,54.9,46.4,30.44,East,98,1.0,6.0,73,0.00,,,0.00,WeatherCatV1.21B27,2013-10-13 21:42:00,
2013-10-13 17:43:00,54.9,46.4,30.44,East,98,0.0,6.0,73,0.00,,,0.00,WeatherCatV1.21B27,2013-10-13 21:43:00,
2013-10-13 17:44:00,54.8,46.7,30.44,East,98,0.0,2.0,74,0.00,,,0.00,WeatherCatV1.21B27,2013-10-13 21:44:00,
2013-10-13 17:46:00,54.7,46.6,30.43,East,98,0.0,0.0,74,0.00,,,0.00,WeatherCatV1.21B27,2013-10-13 21:46:00,
2013-10-13 17:48:00,54.5,46.4,30.43,East,98,0.0,0.0,74,0.00,,,0.00,WeatherCatV1.21B27,2013-10-13 21:48:00,
2013-10-13 17:49:00,54.5,47.1,30.43,East,98,0.0,0.0,76,0.00,,,0.00,WeatherCatV1.21B27,2013-10-13 21:49:00,
2013-10-13 17:50:00,54.4,46.3,30.43,East,98,0.0,2.0,74,0.00,,,0.00,WeatherCatV1.21B27,2013-10-13 21:50:00,
2013-10-13 17:51:00,54.3,46.2,30.44,East,100,5.0,5.0,74,0.00,,,0.00,WeatherCatV1.21B27,2013-10-13 21:51:00,
2013-10-13 17:53:00,54.2,45.7,30.44,SE,135,0.0,6.0,73,0.00,,,0.00,WeatherCatV1.21B27,2013-10-13 21:53:00,
2013-10-13 17:54:00,54.2,46.1,30.44,SE,135,1.0,1.0,74,0.00,,,0.00,WeatherCatV1.21B27,2013-10-13 21:54:00,
2013-10-13 17:55:00,54.1,46.3,30.44,SE,135,1.0,4.0,75,0.00,,,0.00,WeatherCatV1.21B27,2013-10-13 21:55:00,
2013-10-13 17:56:00,54.1,46.0,30.44,SE,135,0.0,4.0,74,0.00,,,0.00,WeatherCatV1.21B27,2013-10-13 21:56:00,
2013-10-13 17:58:00,54.0,46.6,30.43,SE,138,1.0,4.0,76,0.00,,,0.00,WeatherCatV1.21B27,2013-10-13 21:58:00,
2013-10-13 17:59:00,54.0,46.6,30.44,SE,128,4.0,5.0,76,0.00,,,0.00,WeatherCatV1.21B27,2013-10-13 21:59:00,
2013-10-13 18:00:00,53.9,46.2,30.44,SE,128,1.0,5.0,75,0.00,,,0.00,WeatherCatV1.21B27,2013-10-13 22:00:00,
2013-10-13 18:01:00,53.9,46.2,30.44,SE,128,0.0,1.0,75,0.00,,,0.00,WeatherCatV1.21B27,2013-10-13 22:01:00,
2013-10-13 18:03:00,53.7,46.3,30.44,SE,128,0.0,2.0,76,0.00,,,0.00,WeatherCatV1.21B27,2013-10-13 22:03:00,
2013-10-13 18:05:00,53.7,46.3,30.44,SE,128,0.0,1.0,76,0.00,,,0.00,WeatherCatV1.21B27,2013-10-13 22:05:00,
2013-10-13 18:06:00,53.6,46.2,30.44,SE,128,0.0,0.0,76,0.00,,,0.00,WeatherCatV1.21B27,2013-10-13 22:06:00,
2013-10-13 18:08:00,53.5,47.2,30.44,SE,128,0.0,0.0,79,0.00,,,0.00,WeatherCatV1.21B27,2013-10-13 22:08:00,
2013-10-13 18:10:00,53.5,47.2,30.44,SE,128,0.0,0.0,79,0.00,,,0.00,WeatherCatV1.21B27,2013-10-13 22:10:00,
2013-10-13 18:11:00,53.4,46.7,30.44,SE,128,0.0,0.0,78,0.00,,,0.00,WeatherCatV1.21B27,2013-10-13 22:11:00,
2013-10-13 18:12:00,53.3,46.3,30.44,SE,128,0.0,0.0,77,0.00,,,0.00,WeatherCatV1.21B27,2013-10-13 22:12:00,
2013-10-13 18:13:00,53.2,46.5,30.44,SE,128,0.0,0.0,78,0.00,,,0.00,WeatherCatV1.21B27,2013-10-13 22:13:00,
2013-10-13 18:15:00,53.1,46.1,30.44,SE,128,0.0,1.0,77,0.00,,,0.00,WeatherCatV1.21B27,2013-10-13 22:15:00,
2013-10-13 18:16:00,53.1,46.1,30.44,SE,128,0.0,1.0,77,0.00,,,0.00,WeatherCatV1.21B27,2013-10-13 22:16:00,
2013-10-13 18:17:00,53.0,46.0,30.44,SE,128,0.0,1.0,77,0.00,,,0.00,WeatherCatV1.21B27,2013-10-13 22:17:00,
2013-10-13 18:18:00,52.9,46.2,30.44,SE,128,2.0,2.0,78,0.00,,,0.00,WeatherCatV1.21B27,2013-10-13 22:18:00,
2013-10-13 18:20:00,52.7,45.7,30.43,SE,128,0.0,2.0,77,0.00,,,0.00,WeatherCatV1.21B27,2013-10-13 22:20:00,
2013-10-13 18:21:00,52.7,45.7,30.43,SE,128,0.0,2.0,77,0.00,,,0.00,WeatherCatV1.21B27,2013-10-13 22:21:00,
2013-10-13 18:22:00,52.7,46.0,30.43,SE,128,0.0,0.0,78,0.00,,,0.00,WeatherCatV1.21B27,2013-10-13 22:22:00,
2013-10-13 18:24:00,52.5,46.2,30.43,SE,128,0.0,1.0,79,0.00,,,0.00,WeatherCatV1.21B27,2013-10-13 22:24:00,
2013-10-13 18:26:00,52.4,46.1,30.43,SE,128,0.0,2.0,79,0.00,,,0.00,WeatherCatV1.21B27,2013-10-13 22:26:00,
2013-10-13 18:27:00,52.3,46.0,30.43,SE,128,1.0,4.0,79,0.00,,,0.00,WeatherCatV1.21B27,2013-10-13 22:27:00,
2013-10-13 18:29:00,52.1,45.8,30.43,SE,128,0.0,0.0,79,0.00,,,0.00,WeatherCatV1.21B27,2013-10-13 22:29:00,
2013-10-13 18:31:00,52.0,45.7,30.43,SE,128,2.0,2.0,79,0.00,,,0.00,WeatherCatV1.21B27,2013-10-13 22:31:00,
2013-10-13 18:32:00,51.9,45.6,30.43,SE,128,0.0,2.0,79,0.00,,,0.00,WeatherCatV1.21B27,2013-10-13 22:32:00,
2013-10-13 18:34:00,51.8,45.8,30.43,SE,128,0.0,0.0,80,0.00,,,0.00,WeatherCatV1.21B27,2013-10-13 22:34:00,
2013-10-13 18:36:00,51.7,45.7,30.43,SE,128,0.0,0.0,80,0.00,,,0.00,WeatherCatV1.21B27,2013-10-13 22:36:00,
2013-10-13 18:37:00,51.6,45.6,30.43,SE,128,0.0,0.0,80,0.00,,,0.00,WeatherCatV1.21B27,2013-10-13 22:37:00,
2013-10-13 18:38:00,51.6,45.6,30.43,SE,128,0.0,0.0,80,0.00,,,0.00,WeatherCatV1.21B27,2013-10-13 22:38:00,
2013-10-13 18:39:00,51.5,45.9,30.43,SE,128,0.0,0.0,81,0.00,,,0.00,WeatherCatV1.21B27,2013-10-13 22:39:00,
2013-10-13 18:41:00,51.3,45.7,30.43,SE,128,0.0,0.0,81,0.00,,,0.00,WeatherCatV1.21B27,2013-10-13 22:41:00,
2013-10-13 18:42:00,51.3,45.7,30.43,SE,128,0.0,0.0,81,0.00,,,0.00,WeatherCatV1.21B27,2013-10-13 22:42:00,
2013-10-13 18:43:00,51.2,45.6,30.43,SE,128,0.0,0.0,81,0.00,,,0.00,WeatherCatV1.21B27,2013-10-13 22:43:00,
2013-10-13 18:44:00,51.1,45.5,30.43,SE,128,0.0,0.0,81,0.00,,,0.00,WeatherCatV1.21B27,2013-10-13 22:44:00,
2013-10-13 18:46:00,50.9,45.6,30.43,SE,128,0.0,0.0,82,0.00,,,0.00,WeatherCatV1.21B27,2013-10-13 22:46:00,
2013-10-13 18:47:00,50.9,45.6,30.43,SE,128,0.0,0.0,82,0.00,,,0.00,WeatherCatV1.21B27,2013-10-13 22:47:00,
2013-10-13 18:48:00,50.8,45.8,30.44,SE,128,0.0,0.0,83,0.00,,,0.00,WeatherCatV1.21B27,2013-10-13 22:48:00,
2013-10-13 18:49:00,50.7,45.7,30.43,SE,128,0.0,0.0,83,0.00,,,0.00,WeatherCatV1.21B27,2013-10-13 22:49:00,
2013-10-13 18:52:00,50.6,45.6,30.43,SE,128,0.0,2.0,83,0.00,,,0.00,WeatherCatV1.21B27,2013-10-13 22:52:00,
2013-10-13 18:53:00,50.5,45.5,30.43,SE,128,0.0,2.0,83,0.00,,,0.00,WeatherCatV1.21B27,2013-10-13 22:53:00,
2013-10-13 19:04:00,49.7,45.1,30.43,SE,129,0.0,0.0,84,0.00,,,0.00,WeatherCatV1.21B27,2013-10-13 23:04:00,
2013-10-13 19:09:00,49.6,45.0,30.43,SE,129,0.0,0.0,84,0.00,,,0.00,WeatherCatV1.21B27,2013-10-13 23:09:00,
2013-10-13 19:10:00,49.6,45.3,30.43,SE,129,0.0,0.0,85,0.00,,,0.00,WeatherCatV1.21B27,2013-10-13 23:10:00,
2013-10-13 19:14:00,49.5,44.9,30.43,SE,129,0.0,0.0,84,0.00,,,0.00,WeatherCatV1.21B27,2013-10-13 23:14:00,
2013-10-13 19:15:00,49.4,44.8,30.43,SE,129,0.0,0.0,84,0.00,,,0.00,WeatherCatV1.21B27,2013-10-13 23:15:00,
2013-10-13 19:19:00,49.2,44.9,30.43,SE,129,0.0,0.0,85,0.00,,,0.00,WeatherCatV1.21B27,2013-10-13 23:19:00,
2013-10-13 19:20:00,49.2,44.9,30.43,SE,129,0.0,0.0,85,0.00,,,0.00,WeatherCatV1.21B27,2013-10-13 23:20:00,
2013-10-13 19:25:00,48.9,44.6,30.43,SE,129,0.0,0.0,85,0.00,,,0.00,WeatherCatV1.21B27,2013-10-13 23:25:00,
2013-10-13 19:30:00,48.5,44.5,30.43,SE,129,0.0,1.0,86,0.00,,,0.00,WeatherCatV1.21B27,2013-10-13 23:30:00,
2013-10-13 19:35:00,48.3,44.3,30.43,SE,129,0.0,0.0,86,0.00,,,0.00,WeatherCatV1.21B27,2013-10-13 23:35:00,
2013-10-13 19:36:00,48.2,44.2,30.43,SE,129,0.0,0.0,86,0.00,,,0.00,WeatherCatV1.21B27,2013-10-13 23:36:00,
2013-10-13 19:40:00,47.9,44.2,30.43,SE,129,0.0,0.0,87,0.00,,,0.00,WeatherCatV1.21B27,2013-10-13 23:40:00,
2013-10-13 19:41:00,47.8,44.1,30.43,SE,129,0.0,0.0,87,0.00,,,0.00,WeatherCatV1.21B27,2013-10-13 23:41:00,
2013-10-13 19:45:00,47.6,44.2,30.44,SE,129,0.0,2.0,88,0.00,,,0.00,WeatherCatV1.21B27,2013-10-13 23:45:00,
2013-10-13 19:46:00,47.5,44.1,30.43,SE,129,0.0,0.0,88,0.00,,,0.00,WeatherCatV1.21B27,2013-10-13 23:46:00,
2013-10-13 19:50:00,47.3,43.9,30.44,SE,129,2.0,2.0,88,0.00,,,0.00,WeatherCatV1.21B27,2013-10-13 23:50:00,
2013-10-13 19:51:00,47.4,44.0,30.44,SE,129,2.0,4.0,88,0.00,,,0.00,WeatherCatV1.21B27,2013-10-13 23:51:00,
2013-10-13 19:55:00,47.4,44.0,30.44,SE,129,0.0,0.0,88,0.00,,,0.00,WeatherCatV1.21B27,2013-10-13 23:55:00,
2013-10-13 19:56:00,47.4,44.0,30.44,SE,129,0.0,0.0,88,0.00,,,0.00,WeatherCatV1.21B27,2013-10-13 23:56:00,
2013-10-13 19:57:00,47.3,43.9,30.44,SE,129,0.0,0.0,88,0.00,,,0.00,WeatherCatV1.21B27,2013-10-13 23:57:00,
2013-10-13 20:01:00,47.4,44.3,30.44,SE,129,0.0,0.0,89,0.00,,,0.00,WeatherCatV1.21B27,2013-10-14 00:01:00,
2013-10-13 20:02:00,47.4,44.0,30.44,SE,129,0.0,0.0,88,0.00,,,0.00,WeatherCatV1.21B27,2013-10-14 00:02:00,
2013-10-13 20:06:00,47.2,43.8,30.44,SE,129,0.0,0.0,88,0.00,,,0.00,WeatherCatV1.21B27,2013-10-14 00:06:00,
2013-10-13 20:07:00,47.2,43.8,30.44,SE,129,0.0,0.0,88,0.00,,,0.00,WeatherCatV1.21B27,2013-10-14 00:07:00,
2013-10-13 20:11:00,47.1,44.0,30.44,SE,129,0.0,1.0,89,0.00,,,0.00,WeatherCatV1.21B27,2013-10-14 00:11:00,
2013-10-13 20:12:00,47.1,44.0,30.44,SE,129,0.0,1.0,89,0.00,,,0.00,WeatherCatV1.21B27,2013-10-14 00:12:00,
2013-10-13 20:16:00,47.1,44.0,30.44,SE,129,0.0,0.0,89,0.00,,,0.00,WeatherCatV1.21B27,2013-10-14 00:16:00,
2013-10-13 20:17:00,47.1,44.0,30.44,SE,129,0.0,0.0,89,0.00,,,0.00,WeatherCatV1.21B27,2013-10-14 00:17:00,
2013-10-13 20:21:00,47.2,44.4,30.44,SE,129,0.0,0.0,90,0.00,,,0.00,WeatherCatV1.21B27,2013-10-14 00:21:00,
2013-10-13 20:22:00,47.1,44.0,30.44,SE,129,0.0,0.0,89,0.00,,,0.00,WeatherCatV1.21B27,2013-10-14 00:22:00,
2013-10-13 20:23:00,47.0,43.9,30.44,SE,129,0.0,0.0,89,0.00,,,0.00,WeatherCatV1.21B27,2013-10-14 00:23:00,
2013-10-13 20:26:00,46.8,43.4,30.44,SE,129,0.0,0.0,88,0.00,,,0.00,WeatherCatV1.21B27,2013-10-14 00:26:00,
2013-10-13 20:27:00,46.8,43.4,30.44,SE,129,0.0,0.0,88,0.00,,,0.00,WeatherCatV1.21B27,2013-10-14 00:27:00,
2013-10-13 20:28:00,46.7,43.3,30.44,SE,129,0.0,0.0,88,0.00,,,0.00,WeatherCatV1.21B27,2013-10-14 00:28:00,
2013-10-13 20:31:00,46.4,43.3,30.44,SE,129,0.0,0.0,89,0.00,,,0.00,WeatherCatV1.21B27,2013-10-14 00:31:00,
2013-10-13 20:32:00,46.4,43.6,30.44,SE,129,0.0,0.0,90,0.00,,,0.00,WeatherCatV1.21B27,2013-10-14 00:32:00,
2013-10-13 20:33:00,46.4,43.6,30.45,SE,129,0.0,0.0,90,0.00,,,0.00,WeatherCatV1.21B27,2013-10-14 00:33:00,
2013-10-13 20:34:00,46.3,43.5,30.45,SE,129,0.0,0.0,90,0.00,,,0.00,WeatherCatV1.21B27,2013-10-14 00:34:00,
2013-10-13 20:36:00,46.1,43.3,30.45,SE,129,0.0,0.0,90,0.00,,,0.00,WeatherCatV1.21B27,2013-10-14 00:36:00,
2013-10-13 20:37:00,46.1,43.3,30.45,SE,129,0.0,0.0,90,0.00,,,0.00,WeatherCatV1.21B27,2013-10-14 00:37:00,
2013-10-13 20:38:00,46.1,43.3,30.45,SE,129,0.0,0.0,90,0.00,,,0.00,WeatherCatV1.21B27,2013-10-14 00:38:00,
2013-10-13 20:39:00,46.0,43.2,30.45,SE,129,0.0,1.0,90,0.00,,,0.00,WeatherCatV1.21B27,2013-10-14 00:39:00,
2013-10-13 20:41:00,46.0,43.5,30.45,SE,129,0.0,0.0,91,0.00,,,0.00,WeatherCatV1.21B27,2013-10-14 00:41:00,
2013-10-13 20:42:00,45.9,43.4,30.45,SE,129,0.0,1.0,91,0.00,,,0.00,WeatherCatV1.21B27,2013-10-14 00:42:00,
2013-10-13 20:43:00,45.9,43.4,30.45,SE,129,0.0,1.0,91,0.00,,,0.00,WeatherCatV1.21B27,2013-10-14 00:43:00,
2013-10-13 20:44:00,45.8,43.3,30.45,SE,129,1.0,1.0,91,0.00,,,0.00,WeatherCatV1.21B27,2013-10-14 00:44:00,
2013-10-13 20:46:00,45.8,43.3,30.45,SE,129,0.0,2.0,91,0.00,,,0.00,WeatherCatV1.21B27,2013-10-14 00:46:00,
2013-10-13 20:47:00,45.8,43.3,30.44,SE,129,0.0,1.0,91,0.00,,,0.00,WeatherCatV1.21B27,2013-10-14 00:47:00,
2013-10-13 20:48:00,45.8,43.3,30.45,SE,129,1.0,1.0,91,0.00,,,0.00,WeatherCatV1.21B27,2013-10-14 00:48:00,
2013-10-13 20:50:00,45.8,43.3,30.45,SE,129,0.0,2.0,91,0.00,,,0.00,WeatherCatV1.21B27,2013-10-14 00:50:00,
2013-10-13 20:51:00,45.8,43.3,30.45,SE,129,0.0,0.0,91,0.00,,,0.00,WeatherCatV1.21B27,2013-10-14 00:51:00,
2013-10-13 20:53:00,45.8,43.3,30.44,SE,129,0.0,1.0,91,0.00,,,0.00,WeatherCatV1.21B27,2013-10-14 00:53:00,
2013-10-13 20:55:00,45.6,43.1,30.45,SE,129,0.0,0.0,91,0.00,,,0.00,WeatherCatV1.21B27,2013-10-14 00:55:00,
2013-10-13 20:57:00,45.6,43.1,30.44,SE,129,0.0,1.0,91,0.00,,,0.00,WeatherCatV1.21B27,2013-10-14 00:57:00,
2013-10-13 20:58:00,45.5,43.0,30.44,SE,129,0.0,0.0,91,0.00,,,0.00,WeatherCatV1.21B27,2013-10-14 00:58:00,
2013-10-13 20:59:00,45.5,43.0,30.44,SE,129,0.0,0.0,91,0.00,,,0.00,WeatherCatV1.21B27,2013-10-14 00:59:00,
2013-10-13 21:00:00,45.4,42.9,30.45,SE,129,0.0,1.0,91,0.00,,,0.00,WeatherCatV1.21B27,2013-10-14 01:00:00,
2013-10-13 21:02:00,45.4,43.2,30.45,SE,129,0.0,0.0,92,0.00,,,0.00,WeatherCatV1.21B27,2013-10-14 01:02:00,
2013-10-13 21:03:00,45.3,42.8,30.45,SE,129,0.0,0.0,91,0.00,,,0.00,WeatherCatV1.21B27,2013-10-14 01:03:00,
2013-10-13 21:04:00,45.3,42.8,30.45,SE,129,0.0,0.0,91,0.00,,,0.00,WeatherCatV1.21B27,2013-10-14 01:04:00,
2013-10-13 21:06:00,45.1,42.9,30.45,SE,129,0.0,0.0,92,0.00,,,0.00,WeatherCatV1.21B27,2013-10-14 01:06:00,
2013-10-13 21:07:00,45.1,42.9,30.45,SE,129,0.0,0.0,92,0.00,,,0.00,WeatherCatV1.21B27,2013-10-14 01:07:00,
2013-10-13 21:08:00,45.1,42.9,30.45,SE,129,0.0,0.0,92,0.00,,,0.00,WeatherCatV1.21B27,2013-10-14 01:08:00,
2013-10-13 21:09:00,45.1,42.9,30.45,SE,129,0.0,0.0,92,0.00,,,0.00,WeatherCatV1.21B27,2013-10-14 01:09:00,
2013-10-13 21:12:00,45.1,42.9,30.45,SE,129,0.0,0.0,92,0.00,,,0.00,WeatherCatV1.21B27,2013-10-14 01:12:00,
2013-10-13 21:14:00,45.1,43.2,30.45,SE,129,0.0,0.0,93,0.00,,,0.00,WeatherCatV1.21B27,2013-10-14 01:14:00,
2013-10-13 21:17:00,45.1,43.2,30.45,SE,129,0.0,0.0,93,0.00,,,0.00,WeatherCatV1.21B27,2013-10-14 01:17:00,
2013-10-13 21:19:00,45.0,42.8,30.45,SE,129,0.0,0.0,92,0.00,,,0.00,WeatherCatV1.21B27,2013-10-14 01:19:00,
2013-10-13 21:22:00,45.0,43.1,30.45,SE,129,0.0,0.0,93,0.00,,,0.00,WeatherCatV1.21B27,2013-10-14 01:22:00,
2013-10-13 21:24:00,44.9,43.0,30.45,SE,129,0.0,0.0,93,0.00,,,0.00,WeatherCatV1.21B27,2013-10-14 01:24:00,
2013-10-13 21:25:00,44.9,43.0,30.45,SE,129,0.0,0.0,93,0.00,,,0.00,WeatherCatV1.21B27,2013-10-14 01:25:00,
2013-10-13 21:27:00,44.8,42.9,30.45,SE,129,0.0,0.0,93,0.00,,,0.00,WeatherCatV1.21B27,2013-10-14 01:27:00,
2013-10-13 21:28:00,44.8,42.9,30.45,SE,129,0.0,0.0,93,0.00,,,0.00,WeatherCatV1.21B27,2013-10-14 01:28:00,
2013-10-13 21:29:00,44.7,42.8,30.45,SE,129,0.0,0.0,93,0.00,,,0.00,WeatherCatV1.21B27,2013-10-14 01:29:00,
2013-10-13 21:30:00,44.7,42.8,30.45,SE,129,0.0,0.0,93,0.00,,,0.00,WeatherCatV1.21B27,2013-10-14 01:30:00,
2013-10-13 21:32:00,44.7,42.8,30.45,SE,129,0.0,0.0,93,0.00,,,0.00,WeatherCatV1.21B27,2013-10-14 01:32:00,
2013-10-13 21:33:00,44.7,42.8,30.45,SE,129,0.0,0.0,93,0.00,,,0.00,WeatherCatV1.21B27,2013-10-14 01:33:00,
2013-10-13 21:34:00,44.6,42.7,30.45,SE,129,1.0,1.0,93,0.00,,,0.00,WeatherCatV1.21B27,2013-10-14 01:34:00,
2013-10-13 21:35:00,44.6,42.7,30.45,SE,129,0.0,1.0,93,0.00,,,0.00,WeatherCatV1.21B27,2013-10-14 01:35:00,
2013-10-13 21:36:00,44.5,42.6,30.45,SE,129,0.0,1.0,93,0.00,,,0.00,WeatherCatV1.21B27,2013-10-14 01:36:00,
2013-10-13 21:37:00,44.5,42.6,30.45,SE,129,0.0,0.0,93,0.00,,,0.00,WeatherCatV1.21B27,2013-10-14 01:37:00,
2013-10-13 21:38:00,44.4,42.5,30.45,SE,129,0.0,0.0,93,0.00,,,0.00,WeatherCatV1.21B27,2013-10-14 01:38:00,
2013-10-13 21:40:00,44.3,42.4,30.45,SE,129,0.0,0.0,93,0.00,,,0.00,WeatherCatV1.21B27,2013-10-14 01:40:00,
2013-10-13 21:41:00,44.2,42.3,30.45,SE,129,0.0,0.0,93,0.00,,,0.00,WeatherCatV1.21B27,2013-10-14 01:41:00,
2013-10-13 21:42:00,44.1,42.2,30.45,SE,129,0.0,1.0,93,0.00,,,0.00,WeatherCatV1.21B27,2013-10-14 01:42:00,
2013-10-13 21:43:00,44.1,42.2,30.45,SE,129,0.0,1.0,93,0.00,,,0.00,WeatherCatV1.21B27,2013-10-14 01:43:00,
2013-10-13 21:45:00,44.0,42.1,30.45,SE,129,0.0,0.0,93,0.00,,,0.00,WeatherCatV1.21B27,2013-10-14 01:45:00,
2013-10-13 21:46:00,43.9,42.0,30.45,SE,129,0.0,0.0,93,0.00,,,0.00,WeatherCatV1.21B27,2013-10-14 01:46:00,
2013-10-13 21:47:00,43.9,42.3,30.45,SE,129,0.0,0.0,94,0.00,,,0.00,WeatherCatV1.21B27,2013-10-14 01:47:00,
2013-10-13 21:50:00,43.8,42.2,30.45,SE,129,0.0,1.0,94,0.00,,,0.00,WeatherCatV1.21B27,2013-10-14 01:50:00,
2013-10-13 21:51:00,43.8,42.2,30.45,SE,129,0.0,0.0,94,0.00,,,0.00,WeatherCatV1.21B27,2013-10-14 01:51:00,
2013-10-13 21:52:00,43.8,42.2,30.45,SE,129,0.0,0.0,94,0.00,,,0.00,WeatherCatV1.21B27,2013-10-14 01:52:00,
2013-10-13 21:53:00,43.8,42.2,30.45,SE,129,0.0,0.0,94,0.00,,,0.00,WeatherCatV1.21B27,2013-10-14 01:53:00,
2013-10-13 21:55:00,43.7,42.1,30.45,SE,129,0.0,0.0,94,0.00,,,0.00,WeatherCatV1.21B27,2013-10-14 01:55:00,
2013-10-13 21:56:00,43.7,42.1,30.45,SE,129,0.0,0.0,94,0.00,,,0.00,WeatherCatV1.21B27,2013-10-14 01:56:00,
2013-10-13 21:57:00,43.7,42.1,30.45,SE,129,0.0,0.0,94,0.00,,,0.00,WeatherCatV1.21B27,2013-10-14 01:57:00,
2013-10-13 21:58:00,43.7,42.1,30.45,SE,129,0.0,0.0,94,0.00,,,0.00,WeatherCatV1.21B27,2013-10-14 01:58:00,
2013-10-13 22:00:00,43.6,42.0,30.45,SE,129,0.0,1.0,94,0.00,,,0.00,WeatherCatV1.21B27,2013-10-14 02:00:00,
2013-10-13 22:01:00,43.5,41.6,30.45,SE,129,0.0,0.0,93,0.00,,,0.00,WeatherCatV1.21B27,2013-10-14 02:01:00,
2013-10-13 22:02:00,43.4,41.5,30.45,SE,129,0.0,0.0,93,0.00,,,0.00,WeatherCatV1.21B27,2013-10-14 02:02:00,
2013-10-13 22:03:00,43.4,41.5,30.45,SE,129,0.0,0.0,93,0.00,,,0.00,WeatherCatV1.21B27,2013-10-14 02:03:00,
2013-10-13 22:05:00,43.3,41.7,30.45,SE,129,2.0,2.0,94,0.00,,,0.00,WeatherCatV1.21B27,2013-10-14 02:05:00,
2013-10-13 22:06:00,43.3,41.7,30.45,SE,129,1.0,2.0,94,0.00,,,0.00,WeatherCatV1.21B27,2013-10-14 02:06:00,
2013-10-13 22:07:00,43.3,41.7,30.45,SE,129,1.0,2.0,94,0.00,,,0.00,WeatherCatV1.21B27,2013-10-14 02:07:00,
2013-10-13 22:08:00,43.2,41.6,30.45,SE,129,0.0,2.0,94,0.00,,,0.00,WeatherCatV1.21B27,2013-10-14 02:08:00,
2013-10-13 22:10:00,43.1,41.5,30.45,SE,129,0.0,0.0,94,0.00,,,0.00,WeatherCatV1.21B27,2013-10-14 02:10:00,
2013-10-13 22:11:00,43.1,41.5,30.45,SE,129,0.0,0.0,94,0.00,,,0.00,WeatherCatV1.21B27,2013-10-14 02:11:00,
2013-10-13 22:12:00,43.0,41.4,30.45,SE,129,0.0,0.0,94,0.00,,,0.00,WeatherCatV1.21B27,2013-10-14 02:12:00,
2013-10-13 22:13:00,43.0,41.4,30.45,SE,129,2.0,2.0,94,0.00,,,0.00,WeatherCatV1.21B27,2013-10-14 02:13:00,
2013-10-13 22:15:00,42.9,41.3,30.45,SE,129,0.0,1.0,94,0.00,,,0.00,WeatherCatV1.21B27,2013-10-14 02:15:00,
2013-10-13 22:16:00,42.8,41.2,30.45,SE,129,0.0,0.0,94,0.00,,,0.00,WeatherCatV1.21B27,2013-10-14 02:16:00,
2013-10-13 22:17:00,42.8,41.2,30.45,SE,129,0.0,0.0,94,0.00,,,0.00,WeatherCatV1.21B27,2013-10-14 02:17:00,
2013-10-13 22:18:00,42.8,41.2,30.45,SE,129,0.0,1.0,94,0.00,,,0.00,WeatherCatV1.21B27,2013-10-14 02:18:00,
2013-10-13 22:20:00,42.7,41.1,30.45,SE,129,0.0,0.0,94,0.00,,,0.00,WeatherCatV1.21B27,2013-10-14 02:20:00,
2013-10-13 22:22:00,42.7,41.1,30.45,SE,129,0.0,0.0,94,0.00,,,0.00,WeatherCatV1.21B27,2013-10-14 02:22:00,
2013-10-13 22:23:00,42.6,41.0,30.45,SE,129,0.0,0.0,94,0.00,,,0.00,WeatherCatV1.21B27,2013-10-14 02:23:00,
2013-10-13 22:25:00,42.5,40.9,30.45,SE,129,0.0,0.0,94,0.00,,,0.00,WeatherCatV1.21B27,2013-10-14 02:25:00,
2013-10-13 22:27:00,42.5,40.9,30.45,SE,129,0.0,0.0,94,0.00,,,0.00,WeatherCatV1.21B27,2013-10-14 02:27:00,
2013-10-13 22:28:00,42.5,40.9,30.45,SE,129,0.0,0.0,94,0.00,,,0.00,WeatherCatV1.21B27,2013-10-14 02:28:00,
2013-10-13 22:31:00,42.5,41.2,30.45,SE,129,0.0,0.0,95,0.00,,,0.00,WeatherCatV1.21B27,2013-10-14 02:31:00,
2013-10-13 22:33:00,42.5,41.2,30.45,SE,129,0.0,0.0,95,0.00,,,0.00,WeatherCatV1.21B27,2013-10-14 02:33:00,
2013-10-13 22:36:00,42.5,41.2,30.45,SE,129,0.0,0.0,95,0.00,,,0.00,WeatherCatV1.21B27,2013-10-14 02:36:00,
2013-10-13 22:38:00,42.4,40.8,30.45,SE,129,0.0,2.0,94,0.00,,,0.00,WeatherCatV1.21B27,2013-10-14 02:38:00,
2013-10-13 22:39:00,42.4,40.8,30.45,SE,129,0.0,1.0,94,0.00,,,0.00,WeatherCatV1.21B27,2013-10-14 02:39:00,
2013-10-13 22:41:00,42.2,40.6,30.45,SE,129,0.0,0.0,94,0.00,,,0.00,WeatherCatV1.21B27,2013-10-14 02:41:00,
2013-10-13 22:43:00,42.0,40.4,30.45,SE,129,0.0,0.0,94,0.00,,,0.00,WeatherCatV1.21B27,2013-10-14 02:43:00,
2013-10-13 22:44:00,42.0,40.4,30.45,SE,129,0.0,0.0,94,0.00,,,0.00,WeatherCatV1.21B27,2013-10-14 02:44:00,
2013-10-13 22:46:00,41.9,40.3,30.45,SE,129,0.0,2.0,94,0.00,,,0.00,WeatherCatV1.21B27,2013-10-14 02:46:00,
2013-10-13 22:48:00,41.8,40.2,30.45,SE,129,0.0,0.0,94,0.00,,,0.00,WeatherCatV1.21B27,2013-10-14 02:48:00,
2013-10-13 22:49:00,41.7,40.1,30.45,SE,129,0.0,0.0,94,0.00,,,0.00,WeatherCatV1.21B27,2013-10-14 02:49:00,
2013-10-13 22:51:00,41.7,40.1,30.45,SE,129,0.0,0.0,94,0.00,,,0.00,WeatherCatV1.21B27,2013-10-14 02:51:00,
2013-10-13 22:54:00,41.7,40.4,30.45,SE,129,2.0,2.0,95,0.00,,,0.00,WeatherCatV1.21B27,2013-10-14 02:54:00,
2013-10-13 22:56:00,41.7,40.4,30.45,SE,129,0.0,2.0,95,0.00,,,0.00,WeatherCatV1.21B27,2013-10-14 02:56:00,
2013-10-13 22:59:00,41.8,40.5,30.45,SE,129,0.0,2.0,95,0.00,,,0.00,WeatherCatV1.21B27,2013-10-14 02:59:00,
2013-10-13 23:00:00,41.8,40.5,30.45,SE,129,1.0,1.0,95,0.00,,,0.00,WeatherCatV1.21B27,2013-10-14 03:00:00,
2013-10-13 23:01:00,41.8,40.5,30.45,SE,129,1.0,2.0,95,0.00,,,0.00,WeatherCatV1.21B27,2013-10-14 03:01:00,
2013-10-13 23:04:00,41.8,40.5,30.45,SE,129,0.0,1.0,95,0.00,,,0.00,WeatherCatV1.21B27,2013-10-14 03:04:00,
2013-10-13 23:05:00,41.7,40.4,30.45,SE,129,0.0,0.0,95,0.00,,,0.00,WeatherCatV1.21B27,2013-10-14 03:05:00,
2013-10-13 23:06:00,41.7,40.4,30.45,SE,129,0.0,0.0,95,0.00,,,0.00,WeatherCatV1.21B27,2013-10-14 03:06:00,
2013-10-13 23:09:00,41.6,40.3,30.45,SE,129,0.0,1.0,95,0.00,,,0.00,WeatherCatV1.21B27,2013-10-14 03:09:00,
2013-10-13 23:10:00,41.5,40.2,30.45,SE,129,0.0,1.0,95,0.00,,,0.00,WeatherCatV1.21B27,2013-10-14 03:10:00,
2013-10-13 23:11:00,41.5,40.2,30.45,SE,129,0.0,0.0,95,0.00,,,0.00,WeatherCatV1.21B27,2013-10-14 03:11:00,
2013-10-13 23:14:00,41.5,40.2,30.45,SE,129,0.0,2.0,95,0.00,,,0.00,WeatherCatV1.21B27,2013-10-14 03:14:00,
2013-10-13 23:15:00,41.4,40.1,30.45,SE,129,0.0,2.0,95,0.00,,,0.00,WeatherCatV1.21B27,2013-10-14 03:15:00,
2013-10-13 23:16:00,41.4,40.1,30.45,SE,129,0.0,0.0,95,0.00,,,0.00,WeatherCatV1.21B27,2013-10-14 03:16:00,
2013-10-13 23:17:00,41.4,40.1,30.45,SE,129,0.0,0.0,95,0.00,,,0.00,WeatherCatV1.21B27,2013-10-14 03:17:00,
2013-10-13 23:19:00,41.3,40.0,30.45,SE,129,0.0,0.0,95,0.00,,,0.00,WeatherCatV1.21B27,2013-10-14 03:19:00,
2013-10-13 23:20:00,41.3,40.0,30.45,SE,129,0.0,0.0,95,0.00,,,0.00,WeatherCatV1.21B27,2013-10-14 03:20:00,
2013-10-13 23:22:00,41.2,39.9,30.45,SE,129,0.0,0.0,95,0.00,,,0.00,WeatherCatV1.21B27,2013-10-14 03:22:00,
2013-10-13 23:24:00,41.2,39.9,30.45,SE,129,0.0,0.0,95,0.00,,,0.00,WeatherCatV1.21B27,2013-10-14 03:24:00,
2013-10-13 23:25:00,41.3,40.0,30.45,SE,129,0.0,0.0,95,0.00,,,0.00,WeatherCatV1.21B27,2013-10-14 03:25:00,
2013-10-13 23:26:00,41.3,40.2,30.45,SE,129,0.0,0.0,96,0.00,,,0.00,WeatherCatV1.21B27,2013-10-14 03:26:00,
2013-10-13 23:27:00,41.3,40.2,30.45,SE,129,0.0,0.0,96,0.00,,,0.00,WeatherCatV1.21B27,2013-10-14 03:27:00,
2013-10-13 23:29:00,41.3,40.2,30.45,SE,129,0.0,1.0,96,0.00,,,0.00,WeatherCatV1.21B27,2013-10-14 03:29:00,
2013-10-13 23:30:00,41.2,39.9,30.45,SE,129,0.0,2.0,95,0.00,,,0.00,WeatherCatV1.21B27,2013-10-14 03:30:00,
2013-10-13 23:32:00,41.1,39.8,30.45,SE,129,1.0,1.0,95,0.00,,,0.00,WeatherCatV1.21B27,2013-10-14 03:32:00,
2013-10-13 23:33:00,41.0,39.7,30.45,SE,129,0.0,2.0,95,0.00,,,0.00,WeatherCatV1.21B27,2013-10-14 03:33:00,
2013-10-13 23:34:00,41.0,39.7,30.45,SE,129,0.0,1.0,95,0.00,,,0.00,WeatherCatV1.21B27,2013-10-14 03:34:00,
2013-10-13 23:35:00,41.0,39.7,30.45,SE,129,0.0,1.0,95,0.00,,,0.00,WeatherCatV1.21B27,2013-10-14 03:35:00,
2013-10-13 23:37:00,40.8,39.5,30.45,SE,129,2.0,2.0,95,0.00,,,0.00,WeatherCatV1.21B27,2013-10-14 03:37:00,
2013-10-13 23:38:00,40.8,39.5,30.44,SE,129,1.0,4.0,95,0.00,,,0.00,WeatherCatV1.21B27,2013-10-14 03:38:00,
2013-10-13 23:39:00,40.7,39.4,30.44,SE,129,1.0,4.0,95,0.00,,,0.00,WeatherCatV1.21B27,2013-10-14 03:39:00,
2013-10-13 23:40:00,40.7,39.4,30.44,SE,129,1.0,2.0,95,0.00,,,0.00,WeatherCatV1.21B27,2013-10-14 03:40:00,
2013-10-13 23:42:00,40.9,39.8,30.44,SE,129,0.0,1.0,96,0.00,,,0.00,WeatherCatV1.21B27,2013-10-14 03:42:00,
2013-10-13 23:43:00,40.9,39.8,30.44,SE,129,1.0,1.0,96,0.00,,,0.00,WeatherCatV1.21B27,2013-10-14 03:43:00,
2013-10-13 23:44:00,40.9,39.8,30.44,SE,129,2.0,2.0,96,0.00,,,0.00,WeatherCatV1.21B27,2013-10-14 03:44:00,
2013-10-13 23:45:00,40.9,39.8,30.44,SE,129,2.0,4.0,96,0.00,,,0.00,WeatherCatV1.21B27,2013-10-14 03:45:00,
2013-10-13 23:46:00,40.9,39.8,30.44,SE,129,2.0,4.0,96,0.00,,,0.00,WeatherCatV1.21B27,2013-10-14 03:46:00,
2013-10-13 23:47:00,41.1,40.0,30.44,SE,129,1.0,4.0,96,0.00,,,0.00,WeatherCatV1.21B27,2013-10-14 03:47:00,
2013-10-13 23:48:00,41.1,40.0,30.44,SE,129,1.0,2.0,96,0.00,,,0.00,WeatherCatV1.21B27,2013-10-14 03:48:00,
2013-10-13 23:49:00,41.3,40.2,30.44,SE,129,1.0,4.0,96,0.00,,,0.00,WeatherCatV1.21B27,2013-10-14 03:49:00,
2013-10-13 23:50:00,41.4,40.3,30.44,SE,129,0.0,4.0,96,0.00,,,0.00,WeatherCatV1.21B27,2013-10-14 03:50:00,
2013-10-13 23:51:00,41.4,40.3,30.44,SE,129,0.0,4.0,96,0.00,,,0.00,WeatherCatV1.21B27,2013-10-14 03:51:00,
2013-10-13 23:53:00,41.5,40.5,30.44,SE,129,0.0,2.0,96,0.00,,,0.00,WeatherCatV1.21B27,2013-10-14 03:53:00,
2013-10-13 23:54:00,41.4,40.3,30.44,SE,129,1.0,4.0,96,0.00,,,0.00,WeatherCatV1.21B27,2013-10-14 03:54:00,
2013-10-13 23:55:00,41.4,40.3,30.44,SE,129,0.0,4.0,96,0.00,,,0.00,WeatherCatV1.21B27,2013-10-14 03:55:00,
2013-10-13 23:56:00,41.4,40.3,30.44,SE,129,1.0,2.0,96,0.00,,,0.00,WeatherCatV1.21B27,2013-10-14 03:56:00,
2013-10-13 23:58:00,41.4,40.3,30.44,SE,129,0.0,0.0,96,0.00,,,0.00,WeatherCatV1.21B27,2013-10-14 03:58:00,
2013-10-13 23:59:00,41.4,40.3,30.44,SE,129,0.0,0.0,96,0.00,,,0.00,WeatherCatV1.21B27,2013-10-14 03:59:00,